Time,TemperatureF,DewpointF,PressureIn,WindDirection,WindDirectionDegrees,WindSpeedMPH,WindSpeedGustMPH,Humidity,HourlyPrecipIn,Conditions,Clouds,dailyrainin,SoftwareType,DateUTC
2013-03-20 00:00:00,72.1,70.9,29.85,North,0,0.0,2.0,96,0.01,,,0.09,meteohub,2013-03-20 04:00:00,
2013-03-20 00:01:00,72.1,70.9,29.85,East,90,0.0,2.0,96,0.01,,,0.09,meteohub,2013-03-20 04:01:00,
2013-03-20 00:02:00,72.1,70.3,29.85,East,90,0.0,2.0,96,0.01,,,0.09,meteohub,2013-03-20 04:02:00,
2013-03-20 00:07:00,72.0,70.9,29.85,East,90,0.0,2.0,96,0.01,,,0.09,meteohub,2013-03-20 04:07:00,
2013-03-20 00:11:00,72.0,70.9,29.85,NW,315,0.0,2.0,96,0.01,,,0.09,meteohub,2013-03-20 04:11:00,
2013-03-20 00:12:00,72.0,70.9,29.85,NW,315,2.0,2.0,96,0.01,,,0.09,meteohub,2013-03-20 04:12:00,
2013-03-20 00:14:00,72.1,70.7,29.85,NW,315,4.0,4.0,96,0.01,,,0.09,meteohub,2013-03-20 04:14:00,
2013-03-20 00:17:00,72.1,70.7,29.85,NW,315,4.0,4.0,96,0.01,,,0.09,meteohub,2013-03-20 04:17:00,
2013-03-20 00:18:00,72.1,70.7,29.85,NE,45,2.0,3.0,97,0.01,,,0.09,meteohub,2013-03-20 04:18:00,
2013-03-20 00:19:00,72.1,70.7,29.85,NE,45,2.0,3.0,97,0.01,,,0.09,meteohub,2013-03-20 04:19:00,
2013-03-20 00:20:00,72.1,70.7,29.84,North,0,3.0,4.0,97,0.01,,,0.09,meteohub,2013-03-20 04:20:00,
2013-03-20 00:22:00,72.1,70.7,29.84,NNE,23,3.0,4.0,97,0.01,,,0.09,meteohub,2013-03-20 04:22:00,
2013-03-20 00:24:00,72.1,70.7,29.84,North,0,2.0,4.0,97,0.01,,,0.09,meteohub,2013-03-20 04:24:00,
2013-03-20 00:25:00,72.1,70.7,29.84,North,0,3.0,4.0,97,0.01,,,0.09,meteohub,2013-03-20 04:25:00,
2013-03-20 00:26:00,72.1,70.7,29.85,North,0,3.0,4.0,97,0.00,,,0.09,meteohub,2013-03-20 04:26:00,
2013-03-20 00:30:00,72.1,70.7,29.84,North,0,2.0,4.0,97,0.00,,,0.09,meteohub,2013-03-20 04:30:00,
2013-03-20 00:31:00,72.1,70.7,29.84,North,0,2.0,4.0,97,0.00,,,0.09,meteohub,2013-03-20 04:31:00,
2013-03-20 00:32:00,72.1,70.7,29.84,North,0,2.0,4.0,97,0.00,,,0.09,meteohub,2013-03-20 04:32:00,
2013-03-20 00:35:00,72.0,70.7,29.84,NE,45,2.0,4.0,97,0.00,,,0.09,meteohub,2013-03-20 04:35:00,
2013-03-20 00:37:00,72.0,70.7,29.84,East,90,2.0,4.0,97,0.00,,,0.09,meteohub,2013-03-20 04:37:00,
2013-03-20 00:38:00,72.0,70.7,29.84,NE,45,2.0,4.0,97,0.00,,,0.09,meteohub,2013-03-20 04:38:00,
2013-03-20 00:41:00,72.0,70.7,29.84,North,0,3.0,3.0,97,0.00,,,0.09,meteohub,2013-03-20 04:41:00,
2013-03-20 00:43:00,71.8,70.7,29.84,NE,45,3.0,3.0,97,0.00,,,0.09,meteohub,2013-03-20 04:43:00,
2013-03-20 00:44:00,71.8,70.7,29.83,NE,45,3.0,3.0,97,0.00,,,0.09,meteohub,2013-03-20 04:44:00,
2013-03-20 00:48:00,71.8,70.7,29.84,SE,135,3.0,3.0,97,0.00,,,0.09,meteohub,2013-03-20 04:48:00,
2013-03-20 00:51:00,71.8,70.7,29.83,North,0,4.0,4.0,97,0.00,,,0.09,meteohub,2013-03-20 04:51:00,
2013-03-20 00:53:00,71.6,70.7,29.83,North,0,4.0,4.0,97,0.00,,,0.09,meteohub,2013-03-20 04:53:00,
2013-03-20 00:54:00,71.6,70.7,29.83,North,0,4.0,4.0,97,0.00,,,0.09,meteohub,2013-03-20 04:54:00,
2013-03-20 00:57:00,71.6,70.7,29.83,North,0,4.0,4.0,97,0.00,,,0.09,meteohub,2013-03-20 04:57:00,
2013-03-20 01:00:00,71.6,70.2,29.83,North,0,4.0,4.0,97,0.00,,,0.09,meteohub,2013-03-20 05:00:00,
2013-03-20 01:02:00,71.4,70.2,29.83,North,0,4.0,4.0,98,0.00,,,0.09,meteohub,2013-03-20 05:02:00,
2013-03-20 01:04:00,71.4,70.2,29.83,North,0,4.0,4.0,98,0.00,,,0.09,meteohub,2013-03-20 05:04:00,
2013-03-20 01:06:00,71.4,70.2,29.83,NE,45,3.0,4.0,98,0.00,,,0.09,meteohub,2013-03-20 05:06:00,
2013-03-20 01:08:00,71.4,70.2,29.83,North,0,3.0,4.0,98,0.00,,,0.09,meteohub,2013-03-20 05:08:00,
2013-03-20 01:09:00,71.4,70.2,29.83,North,0,4.0,4.0,98,0.00,,,0.09,meteohub,2013-03-20 05:09:00,
2013-03-20 01:12:00,71.4,70.2,29.83,NE,45,2.0,4.0,98,0.00,,,0.09,meteohub,2013-03-20 05:12:00,
2013-03-20 01:14:00,71.2,70.2,29.83,NE,45,3.0,4.0,98,0.00,,,0.09,meteohub,2013-03-20 05:14:00,
2013-03-20 01:17:00,71.2,70.7,29.83,NNE,23,3.0,4.0,98,0.00,,,0.09,meteohub,2013-03-20 05:17:00,
2013-03-20 01:19:00,71.2,70.2,29.83,NW,315,3.0,4.0,98,0.00,,,0.09,meteohub,2013-03-20 05:19:00,
2013-03-20 01:20:00,71.2,70.0,29.82,North,0,3.0,4.0,98,0.00,,,0.09,meteohub,2013-03-20 05:20:00,
2013-03-20 01:21:00,71.2,70.0,29.82,North,0,3.0,4.0,98,0.00,,,0.09,meteohub,2013-03-20 05:21:00,
2013-03-20 01:25:00,71.2,70.0,29.82,NW,315,4.0,4.0,98,0.00,,,0.09,meteohub,2013-03-20 05:25:00,
2013-03-20 01:26:00,71.2,70.0,29.82,North,0,4.0,4.0,98,0.00,,,0.09,meteohub,2013-03-20 05:26:00,
2013-03-20 01:27:00,71.2,70.0,29.82,NE,45,2.0,3.0,98,0.00,,,0.09,meteohub,2013-03-20 05:27:00,
2013-03-20 01:28:00,71.2,70.0,29.82,NE,45,2.0,3.0,98,0.00,,,0.09,meteohub,2013-03-20 05:28:00,
2013-03-20 01:32:00,71.1,70.0,29.82,North,0,3.0,4.0,98,0.00,,,0.09,meteohub,2013-03-20 05:32:00,
2013-03-20 01:33:00,71.1,70.0,29.81,North,0,3.0,4.0,98,0.00,,,0.09,meteohub,2013-03-20 05:33:00,
2013-03-20 01:36:00,71.1,70.0,29.81,North,0,2.0,4.0,98,0.00,,,0.09,meteohub,2013-03-20 05:36:00,
2013-03-20 01:37:00,71.1,70.0,29.81,NE,45,2.0,4.0,98,0.00,,,0.09,meteohub,2013-03-20 05:37:00,
2013-03-20 01:38:00,71.1,70.0,29.81,NE,45,2.0,4.0,98,0.00,,,0.09,meteohub,2013-03-20 05:38:00,
2013-03-20 01:40:00,71.1,70.0,29.81,NE,45,2.0,4.0,98,0.00,,,0.09,meteohub,2013-03-20 05:40:00,
2013-03-20 01:41:00,70.9,70.0,29.81,NE,45,2.0,4.0,98,0.00,,,0.09,meteohub,2013-03-20 05:41:00,
2013-03-20 01:42:00,70.9,70.0,29.81,NE,45,2.0,4.0,98,0.00,,,0.09,meteohub,2013-03-20 05:42:00,
2013-03-20 01:43:00,70.9,70.0,29.81,NE,45,3.0,4.0,98,0.00,,,0.09,meteohub,2013-03-20 05:43:00,
2013-03-20 01:45:00,70.9,70.0,29.81,NE,45,3.0,3.0,98,0.00,,,0.09,meteohub,2013-03-20 05:45:00,
2013-03-20 01:47:00,70.7,70.0,29.80,NE,45,2.0,3.0,98,0.00,,,0.09,meteohub,2013-03-20 05:47:00,
2013-03-20 01:49:00,70.7,70.0,29.81,North,0,3.0,3.0,98,0.00,,,0.09,meteohub,2013-03-20 05:49:00,
2013-03-20 01:52:00,70.7,70.0,29.80,North,0,3.0,4.0,98,0.00,,,0.09,meteohub,2013-03-20 05:52:00,
2013-03-20 01:54:00,70.7,70.0,29.80,North,0,3.0,4.0,98,0.00,,,0.09,meteohub,2013-03-20 05:54:00,
2013-03-20 01:57:00,70.7,69.8,29.80,NNE,23,3.0,4.0,98,0.00,,,0.09,meteohub,2013-03-20 05:57:00,
2013-03-20 01:59:00,70.7,69.8,29.80,North,0,3.0,4.0,98,0.00,,,0.09,meteohub,2013-03-20 05:59:00,
2013-03-20 02:00:00,70.7,69.8,29.80,North,0,3.0,4.0,98,0.00,,,0.09,meteohub,2013-03-20 06:00:00,
2013-03-20 02:02:00,70.7,69.8,29.80,North,0,3.0,4.0,98,0.00,,,0.09,meteohub,2013-03-20 06:02:00,
2013-03-20 02:03:00,70.3,69.8,29.80,North,0,2.0,4.0,98,0.00,,,0.09,meteohub,2013-03-20 06:03:00,
2013-03-20 02:05:00,70.3,69.8,29.80,North,0,2.0,4.0,98,0.00,,,0.09,meteohub,2013-03-20 06:05:00,
2013-03-20 02:06:00,70.3,69.8,29.80,NE,45,2.0,4.0,98,0.00,,,0.09,meteohub,2013-03-20 06:06:00,
2013-03-20 02:07:00,70.3,69.8,29.80,North,0,2.0,4.0,98,0.00,,,0.09,meteohub,2013-03-20 06:07:00,
2013-03-20 02:10:00,70.3,69.8,29.80,East,90,0.0,3.0,98,0.00,,,0.09,meteohub,2013-03-20 06:10:00,
2013-03-20 02:12:00,70.3,69.8,29.80,East,90,1.0,3.0,98,0.00,,,0.09,meteohub,2013-03-20 06:12:00,
2013-03-20 02:14:00,70.3,69.6,29.79,SE,135,0.0,3.0,98,0.00,,,0.09,meteohub,2013-03-20 06:14:00,
2013-03-20 02:16:00,70.3,69.6,29.80,SE,135,0.0,3.0,98,0.00,,,0.09,meteohub,2013-03-20 06:16:00,
2013-03-20 02:19:00,70.3,69.6,29.79,SE,135,0.0,3.0,98,0.00,,,0.09,meteohub,2013-03-20 06:19:00,
2013-03-20 02:20:00,70.3,69.6,29.80,East,90,0.0,3.0,98,0.00,,,0.09,meteohub,2013-03-20 06:20:00,
2013-03-20 02:22:00,70.2,69.6,29.80,NE,45,0.0,2.0,98,0.00,,,0.09,meteohub,2013-03-20 06:22:00,
2013-03-20 02:26:00,70.3,69.4,29.79,NE,45,0.0,1.0,98,0.00,,,0.09,meteohub,2013-03-20 06:26:00,
2013-03-20 02:27:00,70.3,69.4,29.79,NE,45,0.0,1.0,98,0.00,,,0.09,meteohub,2013-03-20 06:27:00,
2013-03-20 02:30:00,70.3,69.4,29.78,North,0,2.0,2.0,98,0.00,,,0.09,meteohub,2013-03-20 06:30:00,
2013-03-20 02:32:00,70.3,69.4,29.79,North,0,2.0,2.0,98,0.00,,,0.09,meteohub,2013-03-20 06:32:00,
2013-03-20 02:36:00,70.3,69.4,29.78,North,0,2.0,2.0,98,0.00,,,0.09,meteohub,2013-03-20 06:36:00,
2013-03-20 02:38:00,70.3,69.4,29.78,North,0,2.0,2.0,98,0.00,,,0.09,meteohub,2013-03-20 06:38:00,
2013-03-20 02:42:00,70.3,69.3,29.78,East,90,2.0,2.0,98,0.00,,,0.09,meteohub,2013-03-20 06:42:00,
2013-03-20 02:44:00,70.2,69.3,29.78,NE,45,2.0,2.0,98,0.00,,,0.09,meteohub,2013-03-20 06:44:00,
2013-03-20 02:47:00,70.2,69.3,29.78,NNE,23,2.0,2.0,98,0.00,,,0.09,meteohub,2013-03-20 06:47:00,
2013-03-20 02:49:00,70.2,69.3,29.78,North,0,2.0,2.0,98,0.00,,,0.09,meteohub,2013-03-20 06:49:00,
2013-03-20 02:50:00,70.2,69.3,29.78,North,0,2.0,2.0,98,0.00,,,0.09,meteohub,2013-03-20 06:50:00,
2013-03-20 02:51:00,70.2,69.3,29.78,NNE,23,2.0,2.0,98,0.00,,,0.09,meteohub,2013-03-20 06:51:00,
2013-03-20 02:53:00,70.2,69.3,29.78,North,0,1.0,2.0,98,0.00,,,0.09,meteohub,2013-03-20 06:53:00,
2013-03-20 02:56:00,70.2,69.3,29.78,NE,45,0.0,2.0,98,0.00,,,0.09,meteohub,2013-03-20 06:56:00,
2013-03-20 02:58:00,70.0,69.3,29.78,East,90,0.0,2.0,98,0.00,,,0.09,meteohub,2013-03-20 06:58:00,
2013-03-20 03:00:00,70.0,69.3,29.78,NE,45,0.0,2.0,98,0.00,,,0.09,meteohub,2013-03-20 07:00:00,
2013-03-20 03:02:00,70.0,69.3,29.78,NE,45,2.0,2.0,98,0.00,,,0.09,meteohub,2013-03-20 07:02:00,
2013-03-20 03:05:00,70.0,69.1,29.78,North,0,2.0,2.0,98,0.00,,,0.09,meteohub,2013-03-20 07:05:00,
2013-03-20 03:06:00,70.0,69.1,29.78,NE,45,2.0,2.0,98,0.00,,,0.09,meteohub,2013-03-20 07:06:00,
2013-03-20 03:07:00,69.8,69.1,29.78,North,0,2.0,2.0,98,0.00,,,0.09,meteohub,2013-03-20 07:07:00,
2013-03-20 03:11:00,69.8,69.1,29.78,North,0,3.0,3.0,98,0.00,,,0.09,meteohub,2013-03-20 07:11:00,
2013-03-20 03:12:00,69.8,69.1,29.77,North,0,2.0,2.0,98,0.00,,,0.09,meteohub,2013-03-20 07:12:00,
2013-03-20 03:17:00,69.8,69.1,29.78,East,90,2.0,3.0,98,0.00,,,0.09,meteohub,2013-03-20 07:17:00,
2013-03-20 03:18:00,69.8,69.1,29.78,NE,45,2.0,3.0,98,0.00,,,0.09,meteohub,2013-03-20 07:18:00,
2013-03-20 03:19:00,69.8,69.1,29.78,NE,45,2.0,3.0,98,0.00,,,0.09,meteohub,2013-03-20 07:19:00,
2013-03-20 03:22:00,69.8,69.1,29.78,North,0,2.0,3.0,98,0.00,,,0.09,meteohub,2013-03-20 07:22:00,
2013-03-20 03:23:00,69.6,68.9,29.78,North,0,2.0,3.0,99,0.00,,,0.09,meteohub,2013-03-20 07:23:00,
2013-03-20 03:25:00,69.6,69.1,29.78,NE,45,2.0,3.0,99,0.00,,,0.09,meteohub,2013-03-20 07:25:00,
2013-03-20 03:26:00,69.6,68.9,29.78,North,0,2.0,3.0,99,0.00,,,0.09,meteohub,2013-03-20 07:26:00,
2013-03-20 03:28:00,69.6,68.9,29.78,NE,45,2.0,3.0,99,0.00,,,0.09,meteohub,2013-03-20 07:28:00,
2013-03-20 03:29:00,69.6,68.9,29.78,East,90,2.0,3.0,99,0.00,,,0.09,meteohub,2013-03-20 07:29:00,
2013-03-20 03:30:00,69.6,68.9,29.78,North,0,2.0,3.0,99,0.00,,,0.09,meteohub,2013-03-20 07:30:00,
2013-03-20 03:31:00,69.6,68.9,29.78,NE,45,2.0,2.0,99,0.00,,,0.09,meteohub,2013-03-20 07:31:00,
2013-03-20 03:34:00,69.6,68.9,29.77,NNE,23,2.0,2.0,99,0.00,,,0.09,meteohub,2013-03-20 07:34:00,
2013-03-20 03:35:00,69.6,69.1,29.78,NNE,23,2.0,2.0,99,0.00,,,0.09,meteohub,2013-03-20 07:35:00,
2013-03-20 03:36:00,69.6,69.1,29.78,North,0,2.0,2.0,99,0.00,,,0.09,meteohub,2013-03-20 07:36:00,
2013-03-20 03:39:00,69.6,69.1,29.78,NE,45,0.0,2.0,99,0.00,,,0.09,meteohub,2013-03-20 07:39:00,
2013-03-20 03:42:00,69.4,69.1,29.78,NE,45,0.0,2.0,99,0.00,,,0.09,meteohub,2013-03-20 07:42:00,
2013-03-20 03:44:00,69.4,69.1,29.78,NE,45,0.0,2.0,99,0.00,,,0.09,meteohub,2013-03-20 07:44:00,
2013-03-20 03:45:00,69.4,69.1,29.78,East,90,0.0,2.0,99,0.00,,,0.09,meteohub,2013-03-20 07:45:00,
2013-03-20 03:47:00,69.4,69.1,29.78,NE,45,0.0,2.0,99,0.00,,,0.09,meteohub,2013-03-20 07:47:00,
2013-03-20 03:48:00,69.4,69.1,29.78,NE,45,0.0,2.0,99,0.00,,,0.09,meteohub,2013-03-20 07:48:00,
2013-03-20 03:50:00,69.4,69.1,29.78,NE,45,0.0,2.0,99,0.00,,,0.09,meteohub,2013-03-20 07:50:00,
2013-03-20 03:52:00,69.4,69.1,29.78,NE,45,0.0,2.0,99,0.00,,,0.09,meteohub,2013-03-20 07:52:00,
2013-03-20 03:53:00,69.4,69.1,29.78,NE,45,0.0,2.0,99,0.00,,,0.09,meteohub,2013-03-20 07:53:00,
2013-03-20 03:54:00,69.4,69.1,29.78,NE,45,0.0,2.0,99,0.00,,,0.09,meteohub,2013-03-20 07:54:00,
2013-03-20 03:57:00,69.4,68.9,29.78,NE,45,0.0,0.0,99,0.00,,,0.09,meteohub,2013-03-20 07:57:00,
2013-03-20 03:59:00,69.4,68.9,29.78,North,0,0.0,0.0,99,0.00,,,0.09,meteohub,2013-03-20 07:59:00,
2013-03-20 04:00:00,69.4,68.9,29.78,North,0,3.0,0.0,99,0.00,,,0.09,meteohub,2013-03-20 08:00:00,
2013-03-20 04:02:00,69.4,68.5,29.78,NNE,23,2.0,0.0,99,0.00,,,0.09,meteohub,2013-03-20 08:02:00,
2013-03-20 04:04:00,69.4,68.5,29.78,NNE,23,2.0,0.0,99,0.00,,,0.09,meteohub,2013-03-20 08:04:00,
2013-03-20 04:05:00,69.4,68.9,29.78,North,0,2.0,0.0,99,0.00,,,0.09,meteohub,2013-03-20 08:05:00,
2013-03-20 04:08:00,69.4,68.5,29.78,NW,315,0.0,3.0,99,0.00,,,0.09,meteohub,2013-03-20 08:08:00,
2013-03-20 04:10:00,69.4,68.9,29.78,NW,315,0.0,3.0,99,0.00,,,0.09,meteohub,2013-03-20 08:10:00,
2013-03-20 04:11:00,69.4,68.9,29.78,NW,315,0.0,3.0,99,0.00,,,0.09,meteohub,2013-03-20 08:11:00,
2013-03-20 04:14:00,69.6,68.9,29.78,NW,315,0.0,3.0,99,0.00,,,0.09,meteohub,2013-03-20 08:14:00,
2013-03-20 04:16:00,69.6,68.9,29.78,NW,315,0.0,3.0,99,0.00,,,0.09,meteohub,2013-03-20 08:16:00,
2013-03-20 04:17:00,69.6,68.9,29.78,NW,315,0.0,3.0,99,0.00,,,0.09,meteohub,2013-03-20 08:17:00,
2013-03-20 04:21:00,69.6,68.9,29.78,NW,315,2.0,2.0,99,0.00,,,0.09,meteohub,2013-03-20 08:21:00,
2013-03-20 04:22:00,69.6,68.9,29.78,NW,315,3.0,3.0,99,0.00,,,0.09,meteohub,2013-03-20 08:22:00,
2013-03-20 04:23:00,69.6,68.9,29.78,NW,315,2.0,2.0,99,0.00,,,0.09,meteohub,2013-03-20 08:23:00,
2013-03-20 04:25:00,69.8,68.9,29.78,North,0,0.0,3.0,98,0.00,,,0.09,meteohub,2013-03-20 08:25:00,
2013-03-20 04:27:00,69.8,68.9,29.78,East,90,0.0,3.0,98,0.00,,,0.09,meteohub,2013-03-20 08:27:00,
2013-03-20 04:29:00,69.8,68.9,29.78,East,90,2.0,3.0,98,0.00,,,0.09,meteohub,2013-03-20 08:29:00,
2013-03-20 04:31:00,69.8,68.9,29.78,ENE,68,2.0,3.0,98,0.00,,,0.09,meteohub,2013-03-20 08:31:00,
2013-03-20 04:33:00,69.8,68.9,29.78,ENE,68,2.0,3.0,98,0.00,,,0.09,meteohub,2013-03-20 08:33:00,
2013-03-20 04:35:00,69.6,68.9,29.78,NW,315,2.0,3.0,99,0.00,,,0.09,meteohub,2013-03-20 08:35:00,
2013-03-20 04:36:00,69.6,68.9,29.78,ENE,68,3.0,3.0,99,0.00,,,0.09,meteohub,2013-03-20 08:36:00,
2013-03-20 04:40:00,69.6,68.9,29.78,North,0,3.0,3.0,99,0.00,,,0.09,meteohub,2013-03-20 08:40:00,
2013-03-20 04:41:00,69.6,68.9,29.78,NNE,23,3.0,3.0,99,0.00,,,0.09,meteohub,2013-03-20 08:41:00,
2013-03-20 04:42:00,69.4,68.9,29.78,NE,45,2.0,3.0,99,0.00,,,0.09,meteohub,2013-03-20 08:42:00,
2013-03-20 04:46:00,69.4,68.9,29.78,NE,45,4.0,4.0,99,0.00,,,0.09,meteohub,2013-03-20 08:46:00,
2013-03-20 04:47:00,69.4,68.9,29.78,NNE,23,3.0,4.0,99,0.00,,,0.09,meteohub,2013-03-20 08:47:00,
2013-03-20 04:48:00,69.4,68.9,29.78,NNE,23,2.0,4.0,99,0.00,,,0.09,meteohub,2013-03-20 08:48:00,
2013-03-20 04:52:00,69.3,68.9,29.78,NE,45,4.0,4.0,99,0.00,,,0.09,meteohub,2013-03-20 08:52:00,
2013-03-20 04:53:00,69.3,68.9,29.78,North,0,3.0,4.0,99,0.00,,,0.09,meteohub,2013-03-20 08:53:00,
2013-03-20 04:57:00,69.3,68.9,29.78,North,0,4.0,4.0,99,0.00,,,0.09,meteohub,2013-03-20 08:57:00,
2013-03-20 04:59:00,69.3,68.9,29.78,North,0,3.0,4.0,99,0.00,,,0.09,meteohub,2013-03-20 08:59:00,
2013-03-20 05:00:00,69.3,68.9,29.78,NW,315,2.0,4.0,99,0.00,,,0.09,meteohub,2013-03-20 09:00:00,
2013-03-20 05:02:00,69.3,68.9,29.78,North,0,2.0,4.0,99,0.00,,,0.09,meteohub,2013-03-20 09:02:00,
2013-03-20 05:04:00,69.3,68.9,29.78,NW,315,2.0,4.0,99,0.00,,,0.09,meteohub,2013-03-20 09:04:00,
2013-03-20 05:05:00,69.3,68.9,29.78,NNW,338,2.0,4.0,99,0.00,,,0.09,meteohub,2013-03-20 09:05:00,
2013-03-20 05:09:00,69.3,68.9,29.78,NNW,338,2.0,4.0,99,0.00,,,0.09,meteohub,2013-03-20 09:09:00,
2013-03-20 05:11:00,69.3,68.9,29.78,North,0,3.0,4.0,99,0.00,,,0.09,meteohub,2013-03-20 09:11:00,
2013-03-20 05:12:00,69.3,68.9,29.78,WSW,248,2.0,4.0,99,0.00,,,0.09,meteohub,2013-03-20 09:12:00,
2013-03-20 05:16:00,69.3,68.9,29.78,North,0,3.0,4.0,99,0.00,,,0.09,meteohub,2013-03-20 09:16:00,
2013-03-20 05:17:00,69.3,68.9,29.78,NW,315,2.0,4.0,99,0.00,,,0.09,meteohub,2013-03-20 09:17:00,
2013-03-20 05:18:00,69.3,68.9,29.78,NW,315,2.0,4.0,99,0.00,,,0.09,meteohub,2013-03-20 09:18:00,
2013-03-20 05:22:00,69.3,68.9,29.78,NW,315,2.0,3.0,99,0.00,,,0.09,meteohub,2013-03-20 09:22:00,
2013-03-20 05:25:00,69.1,68.5,29.78,NNE,23,2.0,3.0,99,0.00,,,0.09,meteohub,2013-03-20 09:25:00,
2013-03-20 05:26:00,69.1,68.5,29.78,North,0,3.0,3.0,99,0.00,,,0.09,meteohub,2013-03-20 09:26:00,
2013-03-20 05:28:00,69.1,68.4,29.78,North,0,4.0,4.0,99,0.00,,,0.09,meteohub,2013-03-20 09:28:00,
2013-03-20 05:29:00,69.1,68.4,29.78,North,0,4.0,4.0,99,0.00,,,0.09,meteohub,2013-03-20 09:29:00,
2013-03-20 05:32:00,69.1,68.5,29.79,North,0,4.0,4.0,99,0.00,,,0.09,meteohub,2013-03-20 09:32:00,
2013-03-20 05:35:00,69.1,68.5,29.78,North,0,2.0,4.0,99,0.00,,,0.09,meteohub,2013-03-20 09:35:00,
2013-03-20 05:37:00,69.1,68.5,29.78,NW,315,2.0,4.0,99,0.00,,,0.09,meteohub,2013-03-20 09:37:00,
2013-03-20 05:38:00,69.1,68.5,29.78,NW,315,2.0,4.0,99,0.00,,,0.09,meteohub,2013-03-20 09:38:00,
2013-03-20 05:41:00,69.1,68.5,29.79,NW,315,2.0,4.0,99,0.00,,,0.09,meteohub,2013-03-20 09:41:00,
2013-03-20 05:42:00,69.1,68.5,29.79,NW,315,3.0,4.0,99,0.00,,,0.09,meteohub,2013-03-20 09:42:00,
2013-03-20 05:43:00,69.1,68.4,29.78,NW,315,3.0,4.0,99,0.00,,,0.09,meteohub,2013-03-20 09:43:00,
2013-03-20 05:46:00,69.1,68.4,29.79,NW,315,4.0,4.0,99,0.00,,,0.09,meteohub,2013-03-20 09:46:00,
2013-03-20 05:47:00,69.1,68.4,29.79,North,0,4.0,4.0,99,0.00,,,0.09,meteohub,2013-03-20 09:47:00,
2013-03-20 05:49:00,69.1,68.4,29.79,NW,315,4.0,4.0,99,0.00,,,0.09,meteohub,2013-03-20 09:49:00,
2013-03-20 05:50:00,69.1,68.4,29.79,NW,315,4.0,4.0,99,0.00,,,0.09,meteohub,2013-03-20 09:50:00,
2013-03-20 05:52:00,69.1,68.4,29.79,North,0,4.0,4.0,99,0.00,,,0.09,meteohub,2013-03-20 09:52:00,
2013-03-20 05:55:00,69.3,68.4,29.79,NW,315,4.0,4.0,99,0.00,,,0.09,meteohub,2013-03-20 09:55:00,
2013-03-20 05:57:00,69.3,68.4,29.79,NW,315,4.0,4.0,99,0.00,,,0.09,meteohub,2013-03-20 09:57:00,
2013-03-20 05:58:00,69.3,68.4,29.79,North,0,4.0,4.0,99,0.00,,,0.09,meteohub,2013-03-20 09:58:00,
2013-03-20 06:00:00,69.3,68.4,29.79,North,0,4.0,4.0,99,0.00,,,0.09,meteohub,2013-03-20 10:00:00,
2013-03-20 06:01:00,69.3,68.4,29.79,NW,315,4.0,5.0,99,0.00,,,0.09,meteohub,2013-03-20 10:01:00,
2013-03-20 06:02:00,69.3,68.4,29.79,NW,315,4.0,5.0,99,0.00,,,0.09,meteohub,2013-03-20 10:02:00,
2013-03-20 06:04:00,69.3,68.4,29.79,North,0,4.0,5.0,99,0.00,,,0.09,meteohub,2013-03-20 10:04:00,
2013-03-20 06:07:00,69.3,68.4,29.79,NW,315,4.0,5.0,99,0.00,,,0.09,meteohub,2013-03-20 10:07:00,
2013-03-20 06:08:00,69.3,68.4,29.79,NW,315,4.0,5.0,99,0.00,,,0.09,meteohub,2013-03-20 10:08:00,
2013-03-20 06:10:00,69.3,68.4,29.79,North,0,3.0,5.0,99,0.00,,,0.09,meteohub,2013-03-20 10:10:00,
2013-03-20 06:12:00,69.3,68.4,29.79,North,0,3.0,5.0,99,0.00,,,0.09,meteohub,2013-03-20 10:12:00,
2013-03-20 06:13:00,69.3,68.4,29.79,North,0,3.0,5.0,99,0.00,,,0.09,meteohub,2013-03-20 10:13:00,
2013-03-20 06:14:00,69.3,68.4,29.79,NW,315,3.0,5.0,99,0.00,,,0.09,meteohub,2013-03-20 10:14:00,
2013-03-20 06:15:00,69.3,68.4,29.79,NW,315,4.0,4.0,99,0.00,,,0.09,meteohub,2013-03-20 10:15:00,
2013-03-20 06:19:00,69.1,68.4,29.80,North,0,3.0,4.0,99,0.00,,,0.09,meteohub,2013-03-20 10:19:00,
2013-03-20 06:20:00,69.1,68.4,29.80,NW,315,3.0,4.0,99,0.00,,,0.09,meteohub,2013-03-20 10:20:00,
2013-03-20 06:23:00,69.1,68.4,29.79,North,0,4.0,4.0,99,0.00,,,0.09,meteohub,2013-03-20 10:23:00,
2013-03-20 06:25:00,69.1,68.2,29.79,North,0,4.0,4.0,99,0.00,,,0.09,meteohub,2013-03-20 10:25:00,
2013-03-20 06:26:00,69.1,68.4,29.79,North,0,5.0,5.0,99,0.00,,,0.09,meteohub,2013-03-20 10:26:00,
2013-03-20 06:29:00,69.1,68.4,29.79,North,0,4.0,4.0,99,0.00,,,0.09,meteohub,2013-03-20 10:29:00,
2013-03-20 06:31:00,69.1,68.2,29.79,North,0,3.0,5.0,99,0.00,,,0.09,meteohub,2013-03-20 10:31:00,
2013-03-20 06:34:00,69.1,68.2,29.80,North,0,3.0,5.0,98,0.00,,,0.09,meteohub,2013-03-20 10:34:00,
2013-03-20 06:36:00,69.1,68.2,29.80,North,0,3.0,5.0,98,0.00,,,0.09,meteohub,2013-03-20 10:36:00,
2013-03-20 06:37:00,69.1,68.2,29.80,North,0,3.0,5.0,98,0.00,,,0.09,meteohub,2013-03-20 10:37:00,
2013-03-20 06:39:00,69.1,68.2,29.80,North,0,4.0,5.0,98,0.00,,,0.09,meteohub,2013-03-20 10:39:00,
2013-03-20 06:40:00,69.1,68.2,29.80,North,0,4.0,5.0,98,0.00,,,0.09,meteohub,2013-03-20 10:40:00,
2013-03-20 06:41:00,69.1,68.2,29.80,North,0,4.0,5.0,98,0.00,,,0.09,meteohub,2013-03-20 10:41:00,
2013-03-20 06:42:00,69.1,68.2,29.80,NNW,338,4.0,5.0,98,0.00,,,0.09,meteohub,2013-03-20 10:42:00,
2013-03-20 06:46:00,69.3,68.2,29.80,NNE,23,4.0,4.0,98,0.00,,,0.09,meteohub,2013-03-20 10:46:00,
2013-03-20 06:47:00,69.4,68.2,29.80,North,0,4.0,4.0,98,0.00,,,0.09,meteohub,2013-03-20 10:47:00,
2013-03-20 06:48:00,69.4,68.2,29.80,North,0,4.0,4.0,98,0.00,,,0.09,meteohub,2013-03-20 10:48:00,
2013-03-20 06:49:00,69.6,68.0,29.80,NNE,23,3.0,4.0,98,0.00,,,0.09,meteohub,2013-03-20 10:49:00,
2013-03-20 06:51:00,69.8,68.0,29.80,North,0,4.0,4.0,97,0.00,,,0.09,meteohub,2013-03-20 10:51:00,
2013-03-20 06:54:00,70.2,68.0,29.80,North,0,5.0,5.0,96,0.00,,,0.09,meteohub,2013-03-20 10:54:00,
2013-03-20 06:55:00,70.3,68.0,29.80,North,0,4.0,5.0,96,0.00,,,0.09,meteohub,2013-03-20 10:55:00,
2013-03-20 06:56:00,70.3,68.0,29.79,North,0,4.0,5.0,96,0.00,,,0.09,meteohub,2013-03-20 10:56:00,
2013-03-20 06:57:00,70.3,68.0,29.79,North,0,3.0,5.0,95,0.00,,,0.09,meteohub,2013-03-20 10:57:00,
2013-03-20 07:00:00,70.7,68.0,29.80,North,0,4.0,5.0,94,0.00,,,0.09,meteohub,2013-03-20 11:00:00,
2013-03-20 07:02:00,70.9,68.0,29.80,North,0,4.0,5.0,94,0.00,,,0.09,meteohub,2013-03-20 11:02:00,
2013-03-20 07:03:00,71.1,68.0,29.80,North,0,4.0,5.0,93,0.00,,,0.09,meteohub,2013-03-20 11:03:00,
2013-03-20 07:04:00,71.2,68.0,29.80,NW,315,4.0,5.0,93,0.00,,,0.09,meteohub,2013-03-20 11:04:00,
2013-03-20 07:05:00,71.4,68.0,29.80,North,0,4.0,5.0,93,0.00,,,0.09,meteohub,2013-03-20 11:05:00,
2013-03-20 07:08:00,72.0,68.0,29.80,North,0,4.0,5.0,91,0.00,,,0.09,meteohub,2013-03-20 11:08:00,
2013-03-20 07:09:00,72.1,68.0,29.80,North,0,4.0,5.0,91,0.00,,,0.09,meteohub,2013-03-20 11:09:00,
2013-03-20 07:10:00,72.1,68.0,29.80,North,0,4.0,5.0,90,0.00,,,0.09,meteohub,2013-03-20 11:10:00,
2013-03-20 07:13:00,72.9,68.0,29.80,North,0,4.0,5.0,89,0.00,,,0.09,meteohub,2013-03-20 11:13:00,
2013-03-20 07:14:00,73.0,68.0,29.80,North,0,3.0,5.0,88,0.00,,,0.09,meteohub,2013-03-20 11:14:00,
2013-03-20 07:15:00,73.4,68.2,29.80,NW,315,2.0,5.0,88,0.00,,,0.09,meteohub,2013-03-20 11:15:00,
2013-03-20 07:18:00,73.9,68.2,29.80,NW,315,4.0,4.0,88,0.00,,,0.09,meteohub,2013-03-20 11:18:00,
2013-03-20 07:19:00,74.1,68.2,29.80,NW,315,4.0,4.0,87,0.00,,,0.09,meteohub,2013-03-20 11:19:00,
2013-03-20 07:23:00,75.4,68.2,29.81,NW,315,3.0,4.0,85,0.00,,,0.09,meteohub,2013-03-20 11:23:00,
2013-03-20 07:25:00,76.1,68.4,29.81,WSW,248,3.0,4.0,85,0.00,,,0.09,meteohub,2013-03-20 11:25:00,
2013-03-20 07:27:00,76.8,68.4,29.81,West,270,2.0,4.0,85,0.00,,,0.09,meteohub,2013-03-20 11:27:00,
2013-03-20 07:30:00,77.5,68.5,29.81,West,270,4.0,4.0,83,0.00,,,0.09,meteohub,2013-03-20 11:30:00,
2013-03-20 07:32:00,77.5,68.5,29.81,NW,315,5.0,5.0,80,0.00,,,0.09,meteohub,2013-03-20 11:32:00,
2013-03-20 07:34:00,77.0,68.7,29.81,NW,315,6.0,6.0,76,0.00,,,0.09,meteohub,2013-03-20 11:34:00,
2013-03-20 07:36:00,76.5,68.7,29.81,NW,315,5.0,6.0,77,0.00,,,0.09,meteohub,2013-03-20 11:36:00,
2013-03-20 07:37:00,76.3,68.7,29.81,NW,315,5.0,6.0,78,0.00,,,0.09,meteohub,2013-03-20 11:37:00,
2013-03-20 07:41:00,75.9,68.7,29.81,NW,315,7.0,7.0,79,0.00,,,0.09,meteohub,2013-03-20 11:41:00,
2013-03-20 07:42:00,75.9,68.5,29.81,NW,315,7.0,7.0,79,0.00,,,0.09,meteohub,2013-03-20 11:42:00,
2013-03-20 07:43:00,75.7,68.5,29.81,NNE,23,5.0,6.0,79,0.00,,,0.09,meteohub,2013-03-20 11:43:00,
2013-03-20 07:45:00,75.7,68.5,29.81,North,0,4.0,7.0,80,0.00,,,0.09,meteohub,2013-03-20 11:45:00,
2013-03-20 07:47:00,75.9,68.5,29.81,North,0,5.0,7.0,80,0.00,,,0.09,meteohub,2013-03-20 11:47:00,
2013-03-20 07:49:00,76.3,68.5,29.81,North,0,4.0,7.0,81,0.00,,,0.09,meteohub,2013-03-20 11:49:00,
2013-03-20 07:52:00,76.8,68.7,29.81,NW,315,5.0,7.0,80,0.00,,,0.09,meteohub,2013-03-20 11:52:00,
2013-03-20 07:53:00,77.0,68.7,29.81,North,0,5.0,7.0,78,0.00,,,0.09,meteohub,2013-03-20 11:53:00,
2013-03-20 07:55:00,77.2,68.7,29.81,NW,315,5.0,7.0,78,0.00,,,0.09,meteohub,2013-03-20 11:55:00,
2013-03-20 07:57:00,77.4,68.7,29.81,North,0,5.0,7.0,78,0.00,,,0.09,meteohub,2013-03-20 11:57:00,
2013-03-20 07:59:00,77.5,68.7,29.82,NW,315,4.0,7.0,77,0.00,,,0.09,meteohub,2013-03-20 11:59:00,
2013-03-20 08:00:00,77.9,68.7,29.81,NW,315,4.0,7.0,77,0.00,,,0.09,meteohub,2013-03-20 12:00:00,
2013-03-20 08:03:00,77.9,68.9,29.81,NNW,338,4.0,6.0,76,0.00,,,0.09,meteohub,2013-03-20 12:03:00,
2013-03-20 08:04:00,77.9,68.9,29.81,NNW,338,4.0,6.0,76,0.00,,,0.09,meteohub,2013-03-20 12:04:00,
2013-03-20 08:05:00,78.1,68.9,29.81,NW,315,3.0,6.0,76,0.00,,,0.09,meteohub,2013-03-20 12:05:00,
2013-03-20 08:10:00,79.7,68.9,29.82,North,0,3.0,6.0,76,0.00,,,0.09,meteohub,2013-03-20 12:10:00,
2013-03-20 08:11:00,79.9,68.9,29.82,NW,315,3.0,5.0,75,0.00,,,0.09,meteohub,2013-03-20 12:11:00,
2013-03-20 08:12:00,79.9,68.9,29.82,NW,315,4.0,5.0,74,0.00,,,0.09,meteohub,2013-03-20 12:12:00,
2013-03-20 08:16:00,79.7,68.9,29.82,NNW,338,4.0,5.0,72,0.00,,,0.09,meteohub,2013-03-20 12:16:00,
2013-03-20 08:17:00,79.5,68.9,29.82,NW,315,4.0,5.0,73,0.00,,,0.09,meteohub,2013-03-20 12:17:00,
2013-03-20 08:21:00,79.9,69.1,29.82,NW,315,4.0,4.0,73,0.00,,,0.09,meteohub,2013-03-20 12:21:00,
2013-03-20 08:22:00,79.9,69.1,29.82,North,0,3.0,4.0,73,0.00,,,0.09,meteohub,2013-03-20 12:22:00,
2013-03-20 08:24:00,80.2,69.1,29.82,NW,315,4.0,4.0,73,0.00,,,0.09,meteohub,2013-03-20 12:24:00,
2013-03-20 08:28:00,80.4,69.1,29.82,NW,315,4.0,4.0,71,0.00,,,0.09,meteohub,2013-03-20 12:28:00,
2013-03-20 08:29:00,80.4,69.1,29.83,NW,315,4.0,4.0,72,0.00,,,0.09,meteohub,2013-03-20 12:29:00,
2013-03-20 08:33:00,81.1,69.3,29.83,North,0,3.0,4.0,71,0.00,,,0.09,meteohub,2013-03-20 12:33:00,
2013-03-20 08:34:00,81.7,69.3,29.83,NW,315,4.0,4.0,71,0.00,,,0.09,meteohub,2013-03-20 12:34:00,
2013-03-20 08:35:00,81.7,69.3,29.83,NW,315,4.0,4.0,71,0.00,,,0.09,meteohub,2013-03-20 12:35:00,
2013-03-20 08:37:00,81.7,69.3,29.83,NW,315,2.0,4.0,69,0.00,,,0.09,meteohub,2013-03-20 12:37:00,
2013-03-20 08:39:00,82.2,69.4,29.83,North,0,3.0,4.0,69,0.00,,,0.09,meteohub,2013-03-20 12:39:00,
2013-03-20 08:42:00,82.8,69.4,29.83,WNW,293,3.0,4.0,67,0.00,,,0.09,meteohub,2013-03-20 12:42:00,
2013-03-20 08:46:00,82.9,69.4,29.83,NNE,23,2.0,4.0,66,0.00,,,0.09,meteohub,2013-03-20 12:46:00,
2013-03-20 08:48:00,83.1,69.3,29.83,West,270,3.0,4.0,67,0.00,,,0.09,meteohub,2013-03-20 12:48:00,
2013-03-20 08:49:00,84.0,69.3,29.83,NW,315,4.0,4.0,67,0.00,,,0.09,meteohub,2013-03-20 12:49:00,
2013-03-20 08:51:00,83.7,69.3,29.83,West,270,3.0,4.0,63,0.00,,,0.09,meteohub,2013-03-20 12:51:00,
2013-03-20 08:53:00,83.5,69.3,29.83,East,90,3.0,4.0,64,0.00,,,0.09,meteohub,2013-03-20 12:53:00,
2013-03-20 08:55:00,84.0,69.3,29.83,NW,315,5.0,5.0,65,0.00,,,0.09,meteohub,2013-03-20 12:55:00,
2013-03-20 08:58:00,84.0,69.4,29.83,WNW,293,4.0,5.0,62,0.00,,,0.09,meteohub,2013-03-20 12:58:00,
2013-03-20 08:59:00,84.0,69.4,29.83,WNW,293,4.0,5.0,63,0.00,,,0.09,meteohub,2013-03-20 12:59:00,
2013-03-20 09:00:00,84.2,69.4,29.83,NW,315,3.0,5.0,60,0.00,,,0.09,meteohub,2013-03-20 13:00:00,
2013-03-20 09:04:00,84.6,69.4,29.83,NE,45,5.0,5.0,57,0.00,,,0.09,meteohub,2013-03-20 13:04:00,
2013-03-20 09:06:00,84.9,69.4,29.83,North,0,5.0,5.0,56,0.00,,,0.09,meteohub,2013-03-20 13:06:00,
2013-03-20 09:07:00,85.1,69.6,29.83,NW,315,4.0,5.0,57,0.00,,,0.09,meteohub,2013-03-20 13:07:00,
2013-03-20 09:10:00,85.3,69.4,29.83,West,270,4.0,5.0,57,0.00,,,0.09,meteohub,2013-03-20 13:10:00,
2013-03-20 09:12:00,85.3,69.3,29.83,West,270,3.0,6.0,56,0.00,,,0.09,meteohub,2013-03-20 13:12:00,
2013-03-20 09:13:00,85.3,69.3,29.83,West,270,3.0,6.0,57,0.00,,,0.09,meteohub,2013-03-20 13:13:00,
2013-03-20 09:14:00,85.5,69.3,29.83,South,180,2.0,6.0,56,0.00,,,0.09,meteohub,2013-03-20 13:14:00,
2013-03-20 09:15:00,85.5,69.3,29.83,South,180,1.0,6.0,56,0.00,,,0.09,meteohub,2013-03-20 13:15:00,
2013-03-20 09:19:00,86.4,69.1,29.83,South,180,6.0,6.0,57,0.00,,,0.09,meteohub,2013-03-20 13:19:00,
2013-03-20 09:20:00,86.2,69.1,29.83,South,180,5.0,6.0,58,0.00,,,0.09,meteohub,2013-03-20 13:20:00,
2013-03-20 09:24:00,84.2,69.1,29.83,South,180,7.0,7.0,63,0.00,,,0.09,meteohub,2013-03-20 13:24:00,
2013-03-20 09:25:00,84.2,69.1,29.83,NW,315,5.0,7.0,64,0.00,,,0.09,meteohub,2013-03-20 13:25:00,
2013-03-20 09:27:00,84.2,69.1,29.83,SW,225,8.0,8.0,64,0.00,,,0.09,meteohub,2013-03-20 13:27:00,
2013-03-20 09:30:00,83.1,69.1,29.83,SW,225,6.0,8.0,64,0.00,,,0.09,meteohub,2013-03-20 13:30:00,
2013-03-20 09:31:00,83.1,69.1,29.83,West,270,5.0,8.0,65,0.00,,,0.09,meteohub,2013-03-20 13:31:00,
2013-03-20 09:32:00,83.1,69.1,29.83,SW,225,5.0,8.0,65,0.00,,,0.09,meteohub,2013-03-20 13:32:00,
2013-03-20 09:37:00,83.5,69.3,29.83,SW,225,8.0,8.0,65,0.00,,,0.09,meteohub,2013-03-20 13:37:00,
2013-03-20 09:38:00,83.5,69.3,29.83,SSW,203,9.0,9.0,65,0.00,,,0.09,meteohub,2013-03-20 13:38:00,
2013-03-20 09:39:00,83.1,69.3,29.83,South,180,6.0,8.0,64,0.00,,,0.09,meteohub,2013-03-20 13:39:00,
2013-03-20 09:43:00,83.5,69.3,29.83,South,180,9.0,9.0,65,0.00,,,0.09,meteohub,2013-03-20 13:43:00,
2013-03-20 09:44:00,83.7,69.3,29.83,South,180,7.0,9.0,65,0.00,,,0.09,meteohub,2013-03-20 13:44:00,
2013-03-20 09:50:00,84.0,69.3,29.83,South,180,4.0,9.0,64,0.00,,,0.09,meteohub,2013-03-20 13:50:00,
2013-03-20 09:51:00,84.2,69.3,29.83,South,180,8.0,9.0,63,0.00,,,0.09,meteohub,2013-03-20 13:51:00,
2013-03-20 09:53:00,84.4,69.3,29.84,South,180,5.0,9.0,62,0.00,,,0.09,meteohub,2013-03-20 13:53:00,
2013-03-20 09:56:00,84.2,69.3,29.84,SW,225,6.0,9.0,62,0.00,,,0.09,meteohub,2013-03-20 13:56:00,
2013-03-20 09:58:00,84.0,69.3,29.84,South,180,8.0,9.0,62,0.00,,,0.09,meteohub,2013-03-20 13:58:00,
2013-03-20 09:59:00,84.0,69.3,29.84,South,180,8.0,9.0,62,0.00,,,0.09,meteohub,2013-03-20 13:59:00,
2013-03-20 10:00:00,84.2,69.3,29.84,SW,225,8.0,9.0,63,0.00,,,0.09,meteohub,2013-03-20 14:00:00,
2013-03-20 10:03:00,84.2,69.3,29.84,SSW,203,5.0,8.0,62,0.00,,,0.09,meteohub,2013-03-20 14:03:00,
2013-03-20 10:05:00,84.0,69.3,29.84,South,180,7.0,8.0,61,0.00,,,0.09,meteohub,2013-03-20 14:05:00,
2013-03-20 10:07:00,83.5,69.3,29.84,SW,225,8.0,11.0,62,0.00,,,0.09,meteohub,2013-03-20 14:07:00,
2013-03-20 10:08:00,83.5,69.3,29.84,SW,225,8.0,11.0,61,0.00,,,0.09,meteohub,2013-03-20 14:08:00,
2013-03-20 10:11:00,83.1,69.3,29.85,South,180,10.0,11.0,63,0.00,,,0.09,meteohub,2013-03-20 14:11:00,
2013-03-20 10:13:00,82.9,69.3,29.84,South,180,5.0,11.0,64,0.00,,,0.09,meteohub,2013-03-20 14:13:00,
2013-03-20 10:14:00,83.1,69.3,29.84,South,180,8.0,11.0,65,0.00,,,0.09,meteohub,2013-03-20 14:14:00,
2013-03-20 10:15:00,83.1,69.3,29.85,SSW,203,8.0,11.0,64,0.00,,,0.09,meteohub,2013-03-20 14:15:00,
2013-03-20 10:16:00,83.5,69.4,29.84,South,180,4.0,11.0,65,0.00,,,0.09,meteohub,2013-03-20 14:16:00,
2013-03-20 10:19:00,84.7,69.4,29.84,South,180,5.0,11.0,62,0.00,,,0.09,meteohub,2013-03-20 14:19:00,
2013-03-20 10:20:00,84.7,69.4,29.84,South,180,5.0,11.0,62,0.00,,,0.09,meteohub,2013-03-20 14:20:00,
2013-03-20 10:21:00,84.9,69.4,29.85,South,180,5.0,10.0,59,0.00,,,0.09,meteohub,2013-03-20 14:21:00,
2013-03-20 10:22:00,85.1,69.4,29.84,South,180,6.0,10.0,59,0.00,,,0.09,meteohub,2013-03-20 14:22:00,
2013-03-20 10:25:00,85.1,69.4,29.84,South,180,4.0,10.0,61,0.00,,,0.09,meteohub,2013-03-20 14:25:00,
2013-03-20 10:26:00,85.5,69.4,29.84,South,180,4.0,10.0,59,0.00,,,0.09,meteohub,2013-03-20 14:26:00,
2013-03-20 10:27:00,85.6,69.4,29.85,SE,135,6.0,10.0,60,0.00,,,0.09,meteohub,2013-03-20 14:27:00,
2013-03-20 10:28:00,85.6,69.4,29.85,SE,135,6.0,10.0,60,0.00,,,0.09,meteohub,2013-03-20 14:28:00,
2013-03-20 10:31:00,85.6,69.4,29.85,SE,135,6.0,8.0,59,0.00,,,0.09,meteohub,2013-03-20 14:31:00,
2013-03-20 10:32:00,85.6,69.4,29.85,East,90,4.0,8.0,59,0.00,,,0.09,meteohub,2013-03-20 14:32:00,
2013-03-20 10:33:00,86.0,69.4,29.85,SW,225,5.0,8.0,59,0.00,,,0.09,meteohub,2013-03-20 14:33:00,
2013-03-20 10:37:00,86.7,69.6,29.85,South,180,7.0,8.0,59,0.00,,,0.09,meteohub,2013-03-20 14:37:00,
2013-03-20 10:39:00,86.4,69.6,29.85,South,180,4.0,8.0,58,0.00,,,0.09,meteohub,2013-03-20 14:39:00,
2013-03-20 10:41:00,86.4,69.6,29.85,SW,225,8.0,8.0,58,0.00,,,0.09,meteohub,2013-03-20 14:41:00,
2013-03-20 10:42:00,86.0,69.6,29.85,East,90,5.0,8.0,58,0.00,,,0.09,meteohub,2013-03-20 14:42:00,
2013-03-20 10:44:00,85.6,69.6,29.85,East,90,4.0,8.0,60,0.00,,,0.09,meteohub,2013-03-20 14:44:00,
2013-03-20 10:47:00,85.1,69.6,29.85,SW,225,9.0,9.0,61,0.00,,,0.09,meteohub,2013-03-20 14:47:00,
2013-03-20 10:49:00,84.6,69.6,29.85,South,180,6.0,9.0,64,0.00,,,0.09,meteohub,2013-03-20 14:49:00,
2013-03-20 10:50:00,84.6,69.6,29.85,South,180,11.0,11.0,64,0.00,,,0.09,meteohub,2013-03-20 14:50:00,
2013-03-20 10:53:00,84.0,69.6,29.85,South,180,8.0,11.0,63,0.00,,,0.09,meteohub,2013-03-20 14:53:00,
2013-03-20 10:54:00,83.8,69.6,29.85,SW,225,9.0,11.0,63,0.00,,,0.09,meteohub,2013-03-20 14:54:00,
2013-03-20 10:55:00,83.7,69.6,29.85,South,180,9.0,11.0,63,0.00,,,0.09,meteohub,2013-03-20 14:55:00,
2013-03-20 10:59:00,83.1,69.6,29.85,SW,225,10.0,11.0,64,0.00,,,0.09,meteohub,2013-03-20 14:59:00,
2013-03-20 11:00:00,82.9,69.6,29.85,South,180,8.0,11.0,65,0.00,,,0.09,meteohub,2013-03-20 15:00:00,
2013-03-20 11:02:00,82.9,69.8,29.85,South,180,8.0,11.0,65,0.00,,,0.09,meteohub,2013-03-20 15:02:00,
2013-03-20 11:05:00,82.9,69.8,29.85,SE,135,6.0,11.0,65,0.00,,,0.09,meteohub,2013-03-20 15:05:00,
2013-03-20 11:06:00,82.9,69.6,29.85,South,180,7.0,11.0,65,0.00,,,0.09,meteohub,2013-03-20 15:06:00,
2013-03-20 11:08:00,83.1,69.8,29.85,South,180,9.0,11.0,65,0.00,,,0.09,meteohub,2013-03-20 15:08:00,
2013-03-20 11:11:00,82.9,69.4,29.85,South,180,8.0,12.0,66,0.00,,,0.09,meteohub,2013-03-20 15:11:00,
2013-03-20 11:12:00,82.9,69.4,29.84,South,180,10.0,12.0,66,0.00,,,0.09,meteohub,2013-03-20 15:12:00,
2013-03-20 11:13:00,83.1,69.4,29.85,SW,225,8.0,12.0,66,0.00,,,0.09,meteohub,2013-03-20 15:13:00,
2013-03-20 11:14:00,83.1,69.4,29.84,WNW,293,3.0,12.0,66,0.00,,,0.09,meteohub,2013-03-20 15:14:00,
2013-03-20 11:17:00,83.5,69.4,29.84,South,180,10.0,12.0,65,0.00,,,0.09,meteohub,2013-03-20 15:17:00,
2013-03-20 11:18:00,82.9,69.4,29.84,SW,225,10.0,12.0,65,0.00,,,0.09,meteohub,2013-03-20 15:18:00,
2013-03-20 11:21:00,82.9,69.8,29.84,South,180,7.0,13.0,66,0.00,,,0.09,meteohub,2013-03-20 15:21:00,
2013-03-20 11:22:00,82.9,69.4,29.84,SW,225,11.0,13.0,66,0.00,,,0.09,meteohub,2013-03-20 15:22:00,
2013-03-20 11:23:00,83.1,69.4,29.84,SW,225,8.0,13.0,66,0.00,,,0.09,meteohub,2013-03-20 15:23:00,
2013-03-20 11:25:00,83.1,69.8,29.84,WSW,248,9.0,14.0,65,0.00,,,0.09,meteohub,2013-03-20 15:25:00,
2013-03-20 11:27:00,82.9,69.8,29.83,SW,225,11.0,14.0,65,0.00,,,0.09,meteohub,2013-03-20 15:27:00,
2013-03-20 11:29:00,82.4,69.4,29.83,SW,225,10.0,14.0,67,0.00,,,0.09,meteohub,2013-03-20 15:29:00,
2013-03-20 11:32:00,82.2,70.0,29.84,SW,225,11.0,15.0,68,0.00,,,0.09,meteohub,2013-03-20 15:32:00,
2013-03-20 11:34:00,82.2,70.0,29.83,SW,225,10.0,15.0,68,0.00,,,0.09,meteohub,2013-03-20 15:34:00,
2013-03-20 11:35:00,82.2,70.0,29.84,SW,225,11.0,15.0,69,0.00,,,0.09,meteohub,2013-03-20 15:35:00,
2013-03-20 11:36:00,82.2,69.8,29.83,SW,225,11.0,15.0,69,0.00,,,0.09,meteohub,2013-03-20 15:36:00,
2013-03-20 11:39:00,82.4,70.0,29.83,SW,225,10.0,15.0,67,0.00,,,0.09,meteohub,2013-03-20 15:39:00,
2013-03-20 11:40:00,82.4,70.0,29.83,South,180,11.0,15.0,67,0.00,,,0.09,meteohub,2013-03-20 15:40:00,
2013-03-20 11:42:00,82.2,70.0,29.83,SW,225,8.0,15.0,68,0.00,,,0.09,meteohub,2013-03-20 15:42:00,
2013-03-20 11:44:00,82.9,70.0,29.83,West,270,8.0,15.0,68,0.00,,,0.09,meteohub,2013-03-20 15:44:00,
2013-03-20 11:46:00,83.1,70.0,29.83,West,270,6.0,11.0,67,0.00,,,0.09,meteohub,2013-03-20 15:46:00,
2013-03-20 11:47:00,83.5,70.0,29.83,West,270,10.0,11.0,67,0.00,,,0.09,meteohub,2013-03-20 15:47:00,
2013-03-20 11:50:00,83.7,70.0,29.83,WSW,248,8.0,11.0,64,0.00,,,0.09,meteohub,2013-03-20 15:50:00,
2013-03-20 11:52:00,83.8,70.2,29.83,NW,315,10.0,11.0,65,0.00,,,0.09,meteohub,2013-03-20 15:52:00,
2013-03-20 11:55:00,83.8,69.8,29.83,SW,225,11.0,11.0,64,0.00,,,0.09,meteohub,2013-03-20 15:55:00,
2013-03-20 11:57:00,83.5,69.8,29.82,SW,225,8.0,11.0,64,0.00,,,0.09,meteohub,2013-03-20 15:57:00,
2013-03-20 11:58:00,83.5,69.8,29.82,South,180,7.0,11.0,65,0.00,,,0.09,meteohub,2013-03-20 15:58:00,
2013-03-20 12:01:00,83.8,69.8,29.82,SW,225,9.0,11.0,62,0.00,,,0.09,meteohub,2013-03-20 16:01:00,
2013-03-20 12:04:00,83.8,70.0,29.82,SSW,203,8.0,11.0,62,0.00,,,0.09,meteohub,2013-03-20 16:04:00,
2013-03-20 12:05:00,83.7,70.0,29.81,South,180,10.0,11.0,64,0.00,,,0.09,meteohub,2013-03-20 16:05:00,
2013-03-20 12:06:00,83.7,70.0,29.81,West,270,8.0,11.0,63,0.00,,,0.09,meteohub,2013-03-20 16:06:00,
2013-03-20 12:07:00,83.8,70.0,29.81,SE,135,7.0,11.0,64,0.00,,,0.09,meteohub,2013-03-20 16:07:00,
2013-03-20 12:09:00,84.6,69.6,29.81,South,180,8.0,11.0,63,0.00,,,0.09,meteohub,2013-03-20 16:09:00,
2013-03-20 12:11:00,84.9,69.6,29.81,South,180,8.0,11.0,63,0.00,,,0.09,meteohub,2013-03-20 16:11:00,
2013-03-20 12:12:00,84.7,70.0,29.81,SSW,203,10.0,11.0,62,0.00,,,0.09,meteohub,2013-03-20 16:12:00,
2013-03-20 12:14:00,84.4,70.0,29.81,SW,225,11.0,11.0,62,0.00,,,0.09,meteohub,2013-03-20 16:14:00,
2013-03-20 12:17:00,84.6,70.0,29.81,SW,225,10.0,10.0,63,0.00,,,0.09,meteohub,2013-03-20 16:17:00,
2013-03-20 12:18:00,84.4,70.0,29.81,SW,225,7.0,10.0,62,0.00,,,0.09,meteohub,2013-03-20 16:18:00,
2013-03-20 12:22:00,85.1,70.2,29.80,West,270,10.0,11.0,63,0.00,,,0.09,meteohub,2013-03-20 16:22:00,
2013-03-20 12:23:00,85.1,70.2,29.80,NNE,23,8.0,11.0,60,0.00,,,0.09,meteohub,2013-03-20 16:23:00,
2013-03-20 12:24:00,84.9,70.2,29.80,SSW,203,11.0,11.0,57,0.00,,,0.09,meteohub,2013-03-20 16:24:00,
2013-03-20 12:27:00,84.0,69.8,29.80,South,180,9.0,11.0,64,0.00,,,0.09,meteohub,2013-03-20 16:27:00,
2013-03-20 12:28:00,84.0,69.8,29.80,SSW,203,12.0,12.0,65,0.00,,,0.09,meteohub,2013-03-20 16:28:00,
2013-03-20 12:30:00,83.7,69.8,29.80,SSW,203,9.0,11.0,65,0.00,,,0.09,meteohub,2013-03-20 16:30:00,
2013-03-20 12:31:00,83.7,69.4,29.80,West,270,8.0,12.0,64,0.00,,,0.09,meteohub,2013-03-20 16:31:00,
2013-03-20 12:32:00,83.7,69.4,29.80,NE,45,9.0,12.0,64,0.00,,,0.09,meteohub,2013-03-20 16:32:00,
2013-03-20 12:35:00,83.7,69.1,29.80,SW,225,11.0,12.0,60,0.00,,,0.09,meteohub,2013-03-20 16:35:00,
2013-03-20 12:37:00,83.7,69.1,29.80,SW,225,7.0,13.0,65,0.00,,,0.09,meteohub,2013-03-20 16:37:00,
2013-03-20 12:38:00,83.8,69.4,29.80,WSW,248,13.0,13.0,65,0.00,,,0.09,meteohub,2013-03-20 16:38:00,
2013-03-20 12:42:00,84.4,69.1,29.79,SSW,203,11.0,13.0,63,0.00,,,0.09,meteohub,2013-03-20 16:42:00,
2013-03-20 12:43:00,84.2,69.4,29.79,South,180,12.0,13.0,62,0.00,,,0.09,meteohub,2013-03-20 16:43:00,
2013-03-20 12:44:00,84.0,69.1,29.79,West,270,11.0,13.0,60,0.00,,,0.09,meteohub,2013-03-20 16:44:00,
2013-03-20 12:47:00,84.2,69.4,29.79,SSW,203,8.0,13.0,65,0.00,,,0.09,meteohub,2013-03-20 16:47:00,
2013-03-20 12:49:00,84.7,69.4,29.79,SW,225,12.0,13.0,64,0.00,,,0.09,meteohub,2013-03-20 16:49:00,
2013-03-20 12:50:00,84.7,69.4,29.79,SW,225,12.0,13.0,64,0.00,,,0.09,meteohub,2013-03-20 16:50:00,
2013-03-20 12:53:00,84.0,69.6,29.79,SW,225,7.0,13.0,67,0.00,,,0.09,meteohub,2013-03-20 16:53:00,
2013-03-20 12:55:00,84.6,69.6,29.79,SW,225,10.0,13.0,66,0.00,,,0.09,meteohub,2013-03-20 16:55:00,
2013-03-20 12:56:00,84.6,69.6,29.79,SW,225,8.0,13.0,64,0.00,,,0.09,meteohub,2013-03-20 16:56:00,
2013-03-20 12:59:00,84.4,69.6,29.79,SW,225,9.0,13.0,66,0.00,,,0.09,meteohub,2013-03-20 16:59:00,
2013-03-20 13:00:00,83.8,69.6,29.79,South,180,8.0,13.0,68,0.00,,,0.09,meteohub,2013-03-20 17:00:00,
2013-03-20 13:02:00,83.7,69.6,29.79,SSW,203,7.0,13.0,69,0.00,,,0.09,meteohub,2013-03-20 17:02:00,
2013-03-20 13:04:00,83.8,70.2,29.79,South,180,11.0,13.0,68,0.00,,,0.09,meteohub,2013-03-20 17:04:00,
2013-03-20 13:07:00,83.8,70.2,29.79,SW,225,8.0,13.0,69,0.00,,,0.09,meteohub,2013-03-20 17:07:00,
2013-03-20 13:08:00,83.8,70.2,29.78,WSW,248,10.0,13.0,68,0.00,,,0.09,meteohub,2013-03-20 17:08:00,
2013-03-20 13:12:00,83.1,70.2,29.78,SW,225,8.0,11.0,69,0.00,,,0.09,meteohub,2013-03-20 17:12:00,
2013-03-20 13:14:00,82.9,70.2,29.79,SSW,203,9.0,11.0,68,0.00,,,0.09,meteohub,2013-03-20 17:14:00,
2013-03-20 13:15:00,82.9,70.2,29.78,South,180,9.0,11.0,69,0.00,,,0.09,meteohub,2013-03-20 17:15:00,
2013-03-20 13:18:00,82.6,70.7,29.78,SW,225,9.0,11.0,70,0.00,,,0.09,meteohub,2013-03-20 17:18:00,
2013-03-20 13:20:00,82.6,70.7,29.78,South,180,11.0,11.0,70,0.00,,,0.09,meteohub,2013-03-20 17:20:00,
2013-03-20 13:21:00,82.4,70.7,29.78,SE,135,5.0,11.0,70,0.00,,,0.09,meteohub,2013-03-20 17:21:00,
2013-03-20 13:24:00,82.9,70.7,29.78,SSW,203,6.0,11.0,70,0.00,,,0.09,meteohub,2013-03-20 17:24:00,
2013-03-20 13:25:00,82.9,70.7,29.78,SW,225,10.0,11.0,70,0.00,,,0.09,meteohub,2013-03-20 17:25:00,
2013-03-20 13:26:00,82.9,70.7,29.78,SW,225,9.0,11.0,70,0.00,,,0.09,meteohub,2013-03-20 17:26:00,
2013-03-20 13:29:00,83.5,70.7,29.78,SSW,203,6.0,11.0,70,0.00,,,0.09,meteohub,2013-03-20 17:29:00,
2013-03-20 13:30:00,84.0,70.7,29.78,SW,225,9.0,11.0,70,0.00,,,0.09,meteohub,2013-03-20 17:30:00,
2013-03-20 13:31:00,84.2,70.7,29.78,South,180,8.0,11.0,68,0.00,,,0.09,meteohub,2013-03-20 17:31:00,
2013-03-20 13:32:00,84.4,70.7,29.78,SE,135,11.0,11.0,68,0.00,,,0.09,meteohub,2013-03-20 17:32:00,
2013-03-20 13:34:00,84.0,70.7,29.78,SSE,158,7.0,11.0,68,0.00,,,0.09,meteohub,2013-03-20 17:34:00,
2013-03-20 13:35:00,84.2,70.9,29.78,SW,225,8.0,11.0,68,0.00,,,0.09,meteohub,2013-03-20 17:35:00,
2013-03-20 13:37:00,84.6,70.9,29.78,SSW,203,8.0,11.0,67,0.00,,,0.09,meteohub,2013-03-20 17:37:00,
2013-03-20 13:39:00,84.6,70.9,29.78,SW,225,6.0,11.0,67,0.00,,,0.09,meteohub,2013-03-20 17:39:00,
2013-03-20 13:42:00,84.7,70.9,29.78,South,180,10.0,11.0,67,0.00,,,0.09,meteohub,2013-03-20 17:42:00,
2013-03-20 13:45:00,84.2,71.1,29.78,South,180,8.0,11.0,67,0.00,,,0.09,meteohub,2013-03-20 17:45:00,
2013-03-20 13:47:00,84.9,71.1,29.78,South,180,4.0,11.0,69,0.00,,,0.09,meteohub,2013-03-20 17:47:00,
2013-03-20 13:48:00,85.3,71.1,29.78,South,180,4.0,11.0,68,0.00,,,0.09,meteohub,2013-03-20 17:48:00,
2013-03-20 13:49:00,85.8,71.1,29.78,South,180,6.0,11.0,68,0.00,,,0.09,meteohub,2013-03-20 17:49:00,
2013-03-20 13:54:00,86.0,71.1,29.78,South,180,9.0,11.0,64,0.00,,,0.09,meteohub,2013-03-20 17:54:00,
2013-03-20 13:55:00,85.6,71.1,29.78,SSW,203,8.0,11.0,65,0.00,,,0.09,meteohub,2013-03-20 17:55:00,
2013-03-20 13:59:00,85.6,71.1,29.78,SSW,203,11.0,11.0,65,0.00,,,0.09,meteohub,2013-03-20 17:59:00,
2013-03-20 14:00:00,85.6,71.1,29.78,South,180,10.0,11.0,66,0.00,,,0.09,meteohub,2013-03-20 18:00:00,
2013-03-20 14:01:00,84.9,71.1,29.78,South,180,8.0,11.0,65,0.00,,,0.09,meteohub,2013-03-20 18:01:00,
2013-03-20 14:03:00,84.6,71.2,29.78,SW,225,8.0,11.0,66,0.00,,,0.09,meteohub,2013-03-20 18:03:00,
2013-03-20 14:05:00,84.7,71.2,29.78,South,180,4.0,11.0,67,0.00,,,0.09,meteohub,2013-03-20 18:05:00,
2013-03-20 14:06:00,84.9,71.2,29.78,South,180,8.0,11.0,67,0.00,,,0.09,meteohub,2013-03-20 18:06:00,
2013-03-20 14:08:00,85.5,71.2,29.78,South,180,9.0,11.0,64,0.00,,,0.09,meteohub,2013-03-20 18:08:00,
2013-03-20 14:09:00,85.3,71.2,29.78,South,180,5.0,11.0,65,0.00,,,0.09,meteohub,2013-03-20 18:09:00,
2013-03-20 14:10:00,85.3,71.2,29.78,South,180,11.0,11.0,66,0.00,,,0.09,meteohub,2013-03-20 18:10:00,
2013-03-20 14:12:00,85.3,71.2,29.78,SW,225,8.0,11.0,67,0.00,,,0.09,meteohub,2013-03-20 18:12:00,
2013-03-20 14:15:00,85.5,71.2,29.77,South,180,6.0,11.0,66,0.00,,,0.09,meteohub,2013-03-20 18:15:00,
2013-03-20 14:17:00,85.5,71.2,29.78,South,180,6.0,11.0,66,0.00,,,0.09,meteohub,2013-03-20 18:17:00,
2013-03-20 14:19:00,86.0,71.2,29.77,South,180,8.0,11.0,65,0.00,,,0.09,meteohub,2013-03-20 18:19:00,
2013-03-20 14:22:00,86.0,71.4,29.78,SW,225,8.0,11.0,65,0.00,,,0.09,meteohub,2013-03-20 18:22:00,
2013-03-20 14:24:00,85.8,71.4,29.78,South,180,6.0,11.0,65,0.00,,,0.09,meteohub,2013-03-20 18:24:00,
2013-03-20 14:25:00,85.8,71.4,29.78,South,180,6.0,11.0,65,0.00,,,0.09,meteohub,2013-03-20 18:25:00,
2013-03-20 14:27:00,85.5,71.4,29.78,West,270,8.0,11.0,65,0.00,,,0.09,meteohub,2013-03-20 18:27:00,
2013-03-20 14:28:00,85.5,71.4,29.78,West,270,8.0,11.0,65,0.00,,,0.09,meteohub,2013-03-20 18:28:00,
2013-03-20 14:29:00,85.3,71.4,29.78,SSW,203,7.0,11.0,66,0.00,,,0.09,meteohub,2013-03-20 18:29:00,
2013-03-20 14:32:00,85.3,71.4,29.78,SW,225,8.0,10.0,66,0.00,,,0.09,meteohub,2013-03-20 18:32:00,
2013-03-20 14:34:00,85.3,71.4,29.78,South,180,11.0,11.0,66,0.00,,,0.09,meteohub,2013-03-20 18:34:00,
2013-03-20 14:35:00,85.3,71.4,29.78,SW,225,9.0,10.0,65,0.00,,,0.09,meteohub,2013-03-20 18:35:00,
2013-03-20 14:38:00,85.3,71.4,29.77,SSE,158,7.0,10.0,66,0.00,,,0.09,meteohub,2013-03-20 18:38:00,
2013-03-20 14:40:00,85.6,71.6,29.77,South,180,5.0,11.0,65,0.00,,,0.09,meteohub,2013-03-20 18:40:00,
2013-03-20 14:41:00,86.0,71.6,29.78,SW,225,7.0,11.0,64,0.00,,,0.09,meteohub,2013-03-20 18:41:00,
2013-03-20 14:42:00,86.0,71.6,29.77,South,180,9.0,11.0,64,0.00,,,0.09,meteohub,2013-03-20 18:42:00,
2013-03-20 14:46:00,85.5,71.6,29.77,SW,225,7.0,11.0,66,0.00,,,0.09,meteohub,2013-03-20 18:46:00,
2013-03-20 14:47:00,86.0,71.8,29.77,South,180,9.0,11.0,66,0.00,,,0.09,meteohub,2013-03-20 18:47:00,
2013-03-20 14:50:00,86.4,71.6,29.77,South,180,6.0,11.0,64,0.00,,,0.09,meteohub,2013-03-20 18:50:00,
2013-03-20 14:51:00,86.5,71.8,29.77,South,180,7.0,9.0,64,0.00,,,0.09,meteohub,2013-03-20 18:51:00,
2013-03-20 14:53:00,86.5,71.8,29.77,SE,135,6.0,9.0,63,0.00,,,0.09,meteohub,2013-03-20 18:53:00,
2013-03-20 14:57:00,86.5,71.8,29.76,South,180,6.0,9.0,63,0.00,,,0.09,meteohub,2013-03-20 18:57:00,
2013-03-20 14:58:00,86.7,71.8,29.76,South,180,5.0,9.0,63,0.00,,,0.09,meteohub,2013-03-20 18:58:00,
2013-03-20 15:00:00,86.9,71.8,29.76,South,180,8.0,9.0,63,0.00,,,0.09,meteohub,2013-03-20 19:00:00,
2013-03-20 15:02:00,86.9,71.8,29.76,SW,225,6.0,9.0,62,0.00,,,0.09,meteohub,2013-03-20 19:02:00,
2013-03-20 15:03:00,86.7,72.0,29.76,SE,135,6.0,9.0,63,0.00,,,0.09,meteohub,2013-03-20 19:03:00,
2013-03-20 15:04:00,86.7,72.0,29.76,SE,135,6.0,9.0,63,0.00,,,0.09,meteohub,2013-03-20 19:04:00,
2013-03-20 15:05:00,86.9,72.0,29.76,South,180,11.0,11.0,62,0.00,,,0.09,meteohub,2013-03-20 19:05:00,
2013-03-20 15:09:00,85.5,72.0,29.76,SE,135,10.0,10.0,60,0.00,,,0.09,meteohub,2013-03-20 19:09:00,
2013-03-20 15:10:00,85.3,72.0,29.76,SE,135,7.0,11.0,64,0.00,,,0.09,meteohub,2013-03-20 19:10:00,
2013-03-20 15:11:00,85.3,72.0,29.76,SE,135,7.0,11.0,64,0.00,,,0.09,meteohub,2013-03-20 19:11:00,
2013-03-20 15:13:00,85.5,71.2,29.76,South,180,9.0,11.0,64,0.00,,,0.09,meteohub,2013-03-20 19:13:00,
2013-03-20 15:14:00,86.0,72.0,29.76,SW,225,11.0,11.0,64,0.00,,,0.09,meteohub,2013-03-20 19:14:00,
2013-03-20 15:16:00,86.0,71.2,29.76,SSW,203,11.0,11.0,63,0.00,,,0.09,meteohub,2013-03-20 19:16:00,
2013-03-20 15:18:00,85.5,71.2,29.76,South,180,10.0,11.0,65,0.00,,,0.09,meteohub,2013-03-20 19:18:00,
2013-03-20 15:19:00,85.5,71.2,29.76,South,180,9.0,11.0,66,0.00,,,0.09,meteohub,2013-03-20 19:19:00,
2013-03-20 15:22:00,85.5,71.2,29.76,South,180,9.0,11.0,65,0.00,,,0.09,meteohub,2013-03-20 19:22:00,
2013-03-20 15:26:00,85.3,71.4,29.76,South,180,11.0,11.0,65,0.00,,,0.09,meteohub,2013-03-20 19:26:00,
2013-03-20 15:28:00,84.6,71.2,29.76,SW,225,6.0,11.0,65,0.00,,,0.09,meteohub,2013-03-20 19:28:00,
2013-03-20 15:29:00,84.2,71.2,29.76,SE,135,7.0,11.0,65,0.00,,,0.09,meteohub,2013-03-20 19:29:00,
2013-03-20 15:34:00,84.2,71.2,29.76,SSW,203,8.0,11.0,66,0.00,,,0.09,meteohub,2013-03-20 19:34:00,
2013-03-20 15:35:00,84.2,71.2,29.76,SSW,203,8.0,11.0,66,0.00,,,0.09,meteohub,2013-03-20 19:35:00,
2013-03-20 15:40:00,85.1,71.2,29.76,SW,225,9.0,11.0,66,0.00,,,0.09,meteohub,2013-03-20 19:40:00,
2013-03-20 15:41:00,84.7,71.2,29.76,SE,135,8.0,11.0,66,0.00,,,0.09,meteohub,2013-03-20 19:41:00,
2013-03-20 15:44:00,84.2,71.2,29.75,West,270,4.0,11.0,65,0.00,,,0.09,meteohub,2013-03-20 19:44:00,
2013-03-20 15:46:00,84.0,71.4,29.76,SW,225,7.0,10.0,67,0.00,,,0.09,meteohub,2013-03-20 19:46:00,
2013-03-20 15:47:00,83.7,71.4,29.76,South,180,8.0,10.0,66,0.00,,,0.09,meteohub,2013-03-20 19:47:00,
2013-03-20 15:48:00,83.5,70.7,29.76,South,180,7.0,10.0,67,0.00,,,0.09,meteohub,2013-03-20 19:48:00,
2013-03-20 15:49:00,83.1,70.7,29.76,South,180,7.0,10.0,68,0.00,,,0.09,meteohub,2013-03-20 19:49:00,
2013-03-20 15:51:00,82.9,70.7,29.76,South,180,8.0,10.0,69,0.00,,,0.09,meteohub,2013-03-20 19:51:00,
2013-03-20 15:52:00,82.8,71.2,29.76,SW,225,4.0,10.0,69,0.00,,,0.09,meteohub,2013-03-20 19:52:00,
2013-03-20 15:54:00,82.9,71.2,29.76,SW,225,4.0,10.0,70,0.00,,,0.09,meteohub,2013-03-20 19:54:00,
2013-03-20 15:56:00,82.8,71.2,29.76,South,180,8.0,9.0,70,0.00,,,0.09,meteohub,2013-03-20 19:56:00,
2013-03-20 15:57:00,82.8,71.2,29.76,South,180,8.0,9.0,70,0.00,,,0.09,meteohub,2013-03-20 19:57:00,
2013-03-20 15:59:00,82.4,71.2,29.76,SW,225,4.0,9.0,70,0.00,,,0.09,meteohub,2013-03-20 19:59:00,
2013-03-20 16:02:00,82.4,71.2,29.75,SW,225,10.0,10.0,71,0.00,,,0.09,meteohub,2013-03-20 20:02:00,
2013-03-20 16:04:00,82.0,71.2,29.76,SW,225,9.0,9.0,72,0.00,,,0.09,meteohub,2013-03-20 20:04:00,
2013-03-20 16:05:00,81.9,71.2,29.76,SW,225,5.0,9.0,72,0.00,,,0.09,meteohub,2013-03-20 20:05:00,
2013-03-20 16:06:00,81.9,71.2,29.76,South,180,8.0,10.0,72,0.00,,,0.09,meteohub,2013-03-20 20:06:00,
2013-03-20 16:09:00,81.9,71.2,29.76,SW,225,8.0,10.0,73,0.00,,,0.09,meteohub,2013-03-20 20:09:00,
2013-03-20 16:10:00,81.9,71.2,29.76,SW,225,6.0,10.0,73,0.00,,,0.09,meteohub,2013-03-20 20:10:00,
2013-03-20 16:11:00,81.9,71.4,29.76,South,180,8.0,10.0,73,0.00,,,0.09,meteohub,2013-03-20 20:11:00,
2013-03-20 16:12:00,81.7,71.2,29.76,SW,225,9.0,10.0,73,0.00,,,0.09,meteohub,2013-03-20 20:12:00,
2013-03-20 16:15:00,81.3,71.4,29.76,South,180,8.0,10.0,74,0.00,,,0.09,meteohub,2013-03-20 20:15:00,
2013-03-20 16:17:00,81.0,71.4,29.76,SW,225,8.0,10.0,73,0.00,,,0.09,meteohub,2013-03-20 20:17:00,
2013-03-20 16:21:00,80.8,71.4,29.75,SW,225,11.0,11.0,75,0.00,,,0.09,meteohub,2013-03-20 20:21:00,
2013-03-20 16:22:00,80.8,71.4,29.75,South,180,10.0,11.0,74,0.00,,,0.09,meteohub,2013-03-20 20:22:00,
2013-03-20 16:23:00,80.6,71.4,29.75,South,180,9.0,11.0,74,0.00,,,0.09,meteohub,2013-03-20 20:23:00,
2013-03-20 16:26:00,80.8,72.0,29.75,South,180,11.0,11.0,75,0.00,,,0.09,meteohub,2013-03-20 20:26:00,
2013-03-20 16:27:00,80.8,72.0,29.75,SSW,203,11.0,11.0,75,0.00,,,0.09,meteohub,2013-03-20 20:27:00,
2013-03-20 16:28:00,80.8,72.0,29.75,SSW,203,9.0,11.0,75,0.00,,,0.09,meteohub,2013-03-20 20:28:00,
2013-03-20 16:29:00,80.6,71.8,29.75,SW,225,8.0,11.0,75,0.00,,,0.09,meteohub,2013-03-20 20:29:00,
2013-03-20 16:33:00,80.8,71.8,29.75,SW,225,5.0,11.0,75,0.00,,,0.09,meteohub,2013-03-20 20:33:00,
2013-03-20 16:34:00,81.0,71.8,29.75,SW,225,9.0,11.0,75,0.00,,,0.09,meteohub,2013-03-20 20:34:00,
2013-03-20 16:37:00,80.8,71.8,29.75,SW,225,4.0,11.0,75,0.00,,,0.09,meteohub,2013-03-20 20:37:00,
2013-03-20 16:39:00,80.8,71.8,29.75,SW,225,8.0,11.0,75,0.00,,,0.09,meteohub,2013-03-20 20:39:00,
2013-03-20 16:41:00,80.8,71.8,29.75,SW,225,9.0,11.0,75,0.00,,,0.09,meteohub,2013-03-20 20:41:00,
2013-03-20 16:42:00,80.4,71.8,29.75,South,180,10.0,11.0,77,0.00,,,0.09,meteohub,2013-03-20 20:42:00,
2013-03-20 16:43:00,80.4,71.8,29.75,South,180,10.0,11.0,77,0.00,,,0.09,meteohub,2013-03-20 20:43:00,
2013-03-20 16:45:00,80.2,71.8,29.75,SW,225,8.0,10.0,77,0.00,,,0.09,meteohub,2013-03-20 20:45:00,
2013-03-20 16:47:00,80.1,71.8,29.75,SSW,203,8.0,10.0,77,0.00,,,0.09,meteohub,2013-03-20 20:47:00,
2013-03-20 16:49:00,80.1,71.6,29.75,SW,225,8.0,10.0,78,0.00,,,0.09,meteohub,2013-03-20 20:49:00,
2013-03-20 16:50:00,80.1,71.8,29.75,SW,225,8.0,10.0,78,0.00,,,0.09,meteohub,2013-03-20 20:50:00,
2013-03-20 16:51:00,80.1,71.8,29.75,West,270,9.0,10.0,78,0.00,,,0.09,meteohub,2013-03-20 20:51:00,
2013-03-20 16:54:00,80.1,71.6,29.75,SW,225,7.0,10.0,79,0.00,,,0.09,meteohub,2013-03-20 20:54:00,
2013-03-20 16:56:00,80.1,71.6,29.75,SSW,203,8.0,10.0,79,0.00,,,0.09,meteohub,2013-03-20 20:56:00,
2013-03-20 16:57:00,79.9,71.6,29.76,SW,225,10.0,10.0,79,0.00,,,0.09,meteohub,2013-03-20 20:57:00,
2013-03-20 16:58:00,79.9,71.6,29.75,SW,225,7.0,10.0,79,0.00,,,0.09,meteohub,2013-03-20 20:58:00,
2013-03-20 16:59:00,79.9,71.6,29.76,SW,225,11.0,11.0,80,0.00,,,0.09,meteohub,2013-03-20 20:59:00,
2013-03-20 17:02:00,79.7,71.6,29.75,SW,225,8.0,10.0,79,0.00,,,0.09,meteohub,2013-03-20 21:02:00,
2013-03-20 17:04:00,79.7,71.6,29.75,WSW,248,11.0,11.0,79,0.00,,,0.09,meteohub,2013-03-20 21:04:00,
2013-03-20 17:05:00,79.7,71.6,29.75,SW,225,9.0,11.0,78,0.00,,,0.09,meteohub,2013-03-20 21:05:00,
2013-03-20 17:07:00,79.7,71.6,29.76,SW,225,8.0,11.0,79,0.00,,,0.09,meteohub,2013-03-20 21:07:00,
2013-03-20 17:09:00,79.7,71.6,29.75,South,180,8.0,11.0,79,0.00,,,0.09,meteohub,2013-03-20 21:09:00,
2013-03-20 17:10:00,79.7,71.6,29.76,South,180,6.0,11.0,79,0.00,,,0.09,meteohub,2013-03-20 21:10:00,
2013-03-20 17:11:00,79.7,71.6,29.75,WSW,248,7.0,12.0,79,0.00,,,0.09,meteohub,2013-03-20 21:11:00,
2013-03-20 17:13:00,79.7,71.6,29.76,SSW,203,11.0,12.0,79,0.00,,,0.09,meteohub,2013-03-20 21:13:00,
2013-03-20 17:16:00,79.7,71.6,29.76,South,180,8.0,12.0,79,0.00,,,0.09,meteohub,2013-03-20 21:16:00,
2013-03-20 17:17:00,79.7,71.6,29.76,SW,225,8.0,12.0,79,0.00,,,0.09,meteohub,2013-03-20 21:17:00,
2013-03-20 17:18:00,79.7,71.6,29.76,SW,225,7.0,12.0,78,0.00,,,0.09,meteohub,2013-03-20 21:18:00,
2013-03-20 17:22:00,79.7,71.4,29.76,SW,225,9.0,11.0,78,0.00,,,0.09,meteohub,2013-03-20 21:22:00,
2013-03-20 17:24:00,79.7,71.4,29.76,SW,225,8.0,11.0,78,0.00,,,0.09,meteohub,2013-03-20 21:24:00,
2013-03-20 17:25:00,79.7,71.4,29.76,South,180,6.0,11.0,78,0.00,,,0.09,meteohub,2013-03-20 21:25:00,
2013-03-20 17:27:00,79.7,71.4,29.76,South,180,4.0,11.0,79,0.00,,,0.09,meteohub,2013-03-20 21:27:00,
2013-03-20 17:29:00,79.9,71.4,29.76,South,180,9.0,11.0,79,0.00,,,0.09,meteohub,2013-03-20 21:29:00,
2013-03-20 17:32:00,79.7,71.6,29.75,South,180,6.0,10.0,79,0.00,,,0.09,meteohub,2013-03-20 21:32:00,
2013-03-20 17:33:00,79.9,71.6,29.75,SW,225,8.0,10.0,79,0.00,,,0.09,meteohub,2013-03-20 21:33:00,
2013-03-20 17:35:00,79.9,71.6,29.76,NW,315,8.0,10.0,78,0.00,,,0.09,meteohub,2013-03-20 21:35:00,
2013-03-20 17:40:00,79.9,71.6,29.76,South,180,7.0,9.0,80,0.00,,,0.09,meteohub,2013-03-20 21:40:00,
2013-03-20 17:41:00,79.9,71.6,29.76,South,180,7.0,9.0,79,0.00,,,0.09,meteohub,2013-03-20 21:41:00,
2013-03-20 17:42:00,79.9,71.6,29.75,SSW,203,11.0,11.0,79,0.00,,,0.09,meteohub,2013-03-20 21:42:00,
2013-03-20 17:44:00,79.7,71.6,29.76,SW,225,6.0,9.0,79,0.00,,,0.09,meteohub,2013-03-20 21:44:00,
2013-03-20 17:47:00,79.7,71.6,29.76,SW,225,7.0,11.0,79,0.00,,,0.09,meteohub,2013-03-20 21:47:00,
2013-03-20 17:49:00,79.5,71.6,29.76,SW,225,9.0,11.0,79,0.00,,,0.09,meteohub,2013-03-20 21:49:00,
2013-03-20 17:54:00,79.3,71.6,29.76,SW,225,7.0,11.0,80,0.00,,,0.09,meteohub,2013-03-20 21:54:00,
2013-03-20 17:55:00,79.3,71.6,29.76,NW,315,7.0,11.0,80,0.00,,,0.09,meteohub,2013-03-20 21:55:00,
2013-03-20 17:56:00,79.2,71.6,29.76,West,270,7.0,11.0,80,0.00,,,0.09,meteohub,2013-03-20 21:56:00,
2013-03-20 17:59:00,79.0,71.4,29.76,West,270,9.0,11.0,81,0.00,,,0.09,meteohub,2013-03-20 21:59:00,
2013-03-20 18:01:00,79.0,71.2,29.76,WSW,248,9.0,11.0,81,0.00,,,0.09,meteohub,2013-03-20 22:01:00,
2013-03-20 18:02:00,79.0,71.2,29.76,SW,225,10.0,11.0,81,0.00,,,0.09,meteohub,2013-03-20 22:02:00,
2013-03-20 18:04:00,78.8,71.6,29.76,SW,225,4.0,11.0,82,0.00,,,0.09,meteohub,2013-03-20 22:04:00,
2013-03-20 18:06:00,78.8,71.6,29.76,SW,225,8.0,11.0,82,0.00,,,0.09,meteohub,2013-03-20 22:06:00,
2013-03-20 18:08:00,79.0,71.4,29.76,SW,225,8.0,11.0,82,0.00,,,0.09,meteohub,2013-03-20 22:08:00,
2013-03-20 18:11:00,78.8,71.6,29.76,SSE,158,8.0,11.0,82,0.00,,,0.09,meteohub,2013-03-20 22:11:00,
2013-03-20 18:12:00,78.8,71.6,29.76,West,270,4.0,11.0,82,0.00,,,0.09,meteohub,2013-03-20 22:12:00,
2013-03-20 18:16:00,78.8,71.6,29.76,NW,315,8.0,11.0,82,0.00,,,0.09,meteohub,2013-03-20 22:16:00,
2013-03-20 18:17:00,78.8,71.6,29.76,SW,225,8.0,11.0,82,0.00,,,0.09,meteohub,2013-03-20 22:17:00,
2013-03-20 18:18:00,78.8,71.4,29.76,West,270,8.0,11.0,82,0.00,,,0.09,meteohub,2013-03-20 22:18:00,
2013-03-20 18:20:00,78.6,71.4,29.76,WSW,248,9.0,11.0,83,0.00,,,0.09,meteohub,2013-03-20 22:20:00,
2013-03-20 18:23:00,78.6,71.4,29.76,SW,225,7.0,11.0,84,0.00,,,0.09,meteohub,2013-03-20 22:23:00,
2013-03-20 18:25:00,78.6,71.4,29.76,West,270,8.0,11.0,84,0.00,,,0.09,meteohub,2013-03-20 22:25:00,
2013-03-20 18:27:00,78.6,71.4,29.76,SW,225,10.0,10.0,84,0.00,,,0.09,meteohub,2013-03-20 22:27:00,
2013-03-20 18:29:00,78.6,71.2,29.76,SW,225,7.0,10.0,84,0.00,,,0.09,meteohub,2013-03-20 22:29:00,
2013-03-20 18:30:00,78.6,71.4,29.76,West,270,8.0,10.0,84,0.00,,,0.09,meteohub,2013-03-20 22:30:00,
2013-03-20 18:32:00,78.6,71.4,29.76,NW,315,11.0,11.0,84,0.00,,,0.09,meteohub,2013-03-20 22:32:00,
2013-03-20 18:34:00,78.4,71.2,29.76,SW,225,5.0,10.0,84,0.00,,,0.09,meteohub,2013-03-20 22:34:00,
2013-03-20 18:35:00,78.4,71.2,29.76,SW,225,5.0,10.0,84,0.00,,,0.09,meteohub,2013-03-20 22:35:00,
2013-03-20 18:37:00,78.4,71.1,29.76,SW,225,6.0,11.0,84,0.00,,,0.09,meteohub,2013-03-20 22:37:00,
2013-03-20 18:41:00,78.4,71.1,29.76,NW,315,8.0,11.0,84,0.00,,,0.09,meteohub,2013-03-20 22:41:00,
2013-03-20 18:42:00,78.4,71.1,29.76,SW,225,8.0,11.0,84,0.00,,,0.09,meteohub,2013-03-20 22:42:00,
2013-03-20 18:43:00,78.4,71.1,29.76,NW,315,8.0,11.0,84,0.00,,,0.09,meteohub,2013-03-20 22:43:00,
2013-03-20 18:46:00,78.4,71.1,29.76,South,180,4.0,11.0,84,0.00,,,0.09,meteohub,2013-03-20 22:46:00,
2013-03-20 18:47:00,78.4,71.1,29.76,South,180,4.0,11.0,84,0.00,,,0.09,meteohub,2013-03-20 22:47:00,
2013-03-20 18:48:00,78.4,71.1,29.76,SW,225,8.0,11.0,84,0.00,,,0.09,meteohub,2013-03-20 22:48:00,
2013-03-20 18:49:00,78.4,71.1,29.76,SW,225,8.0,11.0,84,0.00,,,0.09,meteohub,2013-03-20 22:49:00,
2013-03-20 18:52:00,78.4,71.1,29.76,WSW,248,9.0,9.0,84,0.00,,,0.09,meteohub,2013-03-20 22:52:00,
2013-03-20 18:54:00,78.3,70.9,29.76,West,270,7.0,8.0,83,0.00,,,0.09,meteohub,2013-03-20 22:54:00,
2013-03-20 18:55:00,78.3,70.9,29.76,West,270,7.0,8.0,83,0.00,,,0.09,meteohub,2013-03-20 22:55:00,
2013-03-20 18:57:00,78.3,70.9,29.76,SW,225,10.0,10.0,83,0.00,,,0.09,meteohub,2013-03-20 22:57:00,
2013-03-20 18:58:00,78.3,70.9,29.76,NW,315,8.0,9.0,83,0.00,,,0.09,meteohub,2013-03-20 22:58:00,
2013-03-20 19:00:00,78.3,70.9,29.76,NW,315,6.0,10.0,83,0.00,,,0.09,meteohub,2013-03-20 23:00:00,
2013-03-20 19:01:00,78.3,70.9,29.76,NW,315,5.0,10.0,83,0.00,,,0.09,meteohub,2013-03-20 23:01:00,
2013-03-20 19:03:00,78.3,70.7,29.76,West,270,7.0,10.0,83,0.00,,,0.09,meteohub,2013-03-20 23:03:00,
2013-03-20 19:04:00,78.3,70.7,29.76,West,270,8.0,10.0,83,0.00,,,0.09,meteohub,2013-03-20 23:04:00,
2013-03-20 19:07:00,78.3,71.1,29.76,West,270,8.0,10.0,84,0.00,,,0.09,meteohub,2013-03-20 23:07:00,
2013-03-20 19:08:00,78.3,71.1,29.76,West,270,8.0,10.0,84,0.00,,,0.09,meteohub,2013-03-20 23:08:00,
2013-03-20 19:10:00,78.3,71.1,29.76,West,270,8.0,10.0,84,0.00,,,0.09,meteohub,2013-03-20 23:10:00,
2013-03-20 19:11:00,78.3,71.1,29.76,West,270,7.0,10.0,84,0.00,,,0.09,meteohub,2013-03-20 23:11:00,
2013-03-20 19:14:00,78.3,71.1,29.76,West,270,9.0,10.0,84,0.00,,,0.09,meteohub,2013-03-20 23:14:00,
2013-03-20 19:17:00,78.3,71.1,29.77,NW,315,4.0,8.0,84,0.00,,,0.09,meteohub,2013-03-20 23:17:00,
2013-03-20 19:18:00,78.3,71.1,29.76,SW,225,5.0,8.0,84,0.00,,,0.09,meteohub,2013-03-20 23:18:00,
2013-03-20 19:20:00,78.3,71.1,29.77,West,270,5.0,8.0,84,0.00,,,0.09,meteohub,2013-03-20 23:20:00,
2013-03-20 19:22:00,78.3,71.1,29.77,WNW,293,5.0,9.0,84,0.00,,,0.09,meteohub,2013-03-20 23:22:00,
2013-03-20 19:24:00,78.3,71.1,29.77,NW,315,6.0,9.0,84,0.00,,,0.09,meteohub,2013-03-20 23:24:00,
2013-03-20 19:25:00,78.3,71.1,29.77,WSW,248,10.0,10.0,84,0.00,,,0.09,meteohub,2013-03-20 23:25:00,
2013-03-20 19:27:00,78.3,71.1,29.77,SW,225,5.0,9.0,84,0.00,,,0.09,meteohub,2013-03-20 23:27:00,
2013-03-20 19:31:00,78.3,71.1,29.77,West,270,6.0,10.0,83,0.00,,,0.09,meteohub,2013-03-20 23:31:00,
2013-03-20 19:32:00,78.3,71.1,29.77,West,270,5.0,10.0,83,0.00,,,0.09,meteohub,2013-03-20 23:32:00,
2013-03-20 19:34:00,78.3,71.1,29.77,South,180,8.0,10.0,83,0.00,,,0.09,meteohub,2013-03-20 23:34:00,
2013-03-20 19:37:00,78.3,71.1,29.77,SW,225,8.0,10.0,83,0.00,,,0.09,meteohub,2013-03-20 23:37:00,
2013-03-20 19:38:00,78.3,71.1,29.78,SW,225,4.0,10.0,83,0.00,,,0.09,meteohub,2013-03-20 23:38:00,
2013-03-20 19:40:00,78.3,71.1,29.77,WSW,248,6.0,10.0,83,0.00,,,0.09,meteohub,2013-03-20 23:40:00,
2013-03-20 19:43:00,78.3,71.1,29.78,West,270,8.0,10.0,83,0.00,,,0.09,meteohub,2013-03-20 23:43:00,
2013-03-20 19:44:00,78.3,71.1,29.78,West,270,8.0,10.0,83,0.00,,,0.09,meteohub,2013-03-20 23:44:00,
2013-03-20 19:48:00,78.3,70.7,29.77,SW,225,8.0,8.0,83,0.00,,,0.09,meteohub,2013-03-20 23:48:00,
2013-03-20 19:49:00,78.3,70.9,29.78,West,270,7.0,8.0,83,0.00,,,0.09,meteohub,2013-03-20 23:49:00,
2013-03-20 19:51:00,78.3,71.4,29.77,West,270,9.0,9.0,83,0.00,,,0.09,meteohub,2013-03-20 23:51:00,
2013-03-20 19:52:00,78.3,71.1,29.78,West,270,7.0,9.0,83,0.00,,,0.09,meteohub,2013-03-20 23:52:00,
2013-03-20 19:54:00,78.3,71.1,29.78,West,270,4.0,9.0,83,0.00,,,0.09,meteohub,2013-03-20 23:54:00,
2013-03-20 19:55:00,78.3,71.1,29.78,South,180,4.0,9.0,83,0.00,,,0.09,meteohub,2013-03-20 23:55:00,
2013-03-20 19:56:00,78.3,71.1,29.78,West,270,5.0,9.0,83,0.00,,,0.09,meteohub,2013-03-20 23:56:00,
2013-03-20 19:57:00,78.3,71.1,29.78,West,270,10.0,10.0,83,0.00,,,0.09,meteohub,2013-03-20 23:57:00,
2013-03-20 20:00:00,78.3,70.7,29.78,SW,225,8.0,9.0,83,0.00,,,0.09,meteohub,2013-03-21 00:00:00,
2013-03-20 20:02:00,78.3,70.7,29.78,SW,225,8.0,10.0,83,0.00,,,0.09,meteohub,2013-03-21 00:02:00,
2013-03-20 20:03:00,78.3,70.7,29.78,NW,315,7.0,10.0,83,0.00,,,0.09,meteohub,2013-03-21 00:03:00,
2013-03-20 20:07:00,78.3,70.7,29.78,West,270,5.0,10.0,83,0.00,,,0.00,meteohub,2013-03-21 00:07:00,
2013-03-20 20:08:00,78.3,70.7,29.78,SW,225,7.0,10.0,83,0.00,,,0.00,meteohub,2013-03-21 00:08:00,
2013-03-20 20:12:00,78.3,71.1,29.78,West,270,6.0,10.0,83,0.00,,,0.00,meteohub,2013-03-21 00:12:00,
2013-03-20 20:13:00,78.3,71.1,29.78,SW,225,6.0,10.0,83,0.00,,,0.00,meteohub,2013-03-21 00:13:00,
2013-03-20 20:14:00,78.3,71.4,29.78,West,270,5.0,10.0,83,0.00,,,0.00,meteohub,2013-03-21 00:14:00,
2013-03-20 20:15:00,78.3,71.1,29.78,West,270,5.0,10.0,83,0.00,,,0.00,meteohub,2013-03-21 00:15:00,
2013-03-20 20:19:00,78.3,71.4,29.78,West,270,4.0,9.0,83,0.00,,,0.00,meteohub,2013-03-21 00:19:00,
2013-03-20 20:21:00,78.3,71.4,29.78,West,270,6.0,9.0,83,0.00,,,0.00,meteohub,2013-03-21 00:21:00,
2013-03-20 20:22:00,78.3,71.4,29.78,NW,315,6.0,9.0,84,0.00,,,0.00,meteohub,2013-03-21 00:22:00,
2013-03-20 20:26:00,78.3,71.1,29.78,West,270,4.0,8.0,84,0.00,,,0.00,meteohub,2013-03-21 00:26:00,
2013-03-20 20:27:00,78.3,71.1,29.78,SW,225,4.0,8.0,84,0.00,,,0.00,meteohub,2013-03-21 00:27:00,
2013-03-20 20:28:00,78.3,71.1,29.78,SW,225,4.0,8.0,84,0.00,,,0.00,meteohub,2013-03-21 00:28:00,
2013-03-20 20:29:00,78.3,71.1,29.78,West,270,2.0,8.0,84,0.00,,,0.00,meteohub,2013-03-21 00:29:00,
2013-03-20 20:32:00,78.3,71.1,29.78,SW,225,6.0,8.0,84,0.00,,,0.00,meteohub,2013-03-21 00:32:00,
2013-03-20 20:33:00,78.3,71.4,29.78,West,270,4.0,8.0,84,0.00,,,0.00,meteohub,2013-03-21 00:33:00,
2013-03-20 20:34:00,78.3,71.1,29.78,NW,315,6.0,8.0,84,0.00,,,0.00,meteohub,2013-03-21 00:34:00,
2013-03-20 20:36:00,78.3,71.1,29.78,SW,225,6.0,7.0,84,0.00,,,0.00,meteohub,2013-03-21 00:36:00,
2013-03-20 20:37:00,78.3,71.1,29.78,West,270,5.0,7.0,84,0.00,,,0.00,meteohub,2013-03-21 00:37:00,
2013-03-20 20:39:00,78.3,71.1,29.78,West,270,5.0,7.0,84,0.00,,,0.00,meteohub,2013-03-21 00:39:00,
2013-03-20 20:41:00,78.3,71.4,29.79,SW,225,4.0,7.0,84,0.00,,,0.00,meteohub,2013-03-21 00:41:00,
2013-03-20 20:42:00,78.3,71.1,29.79,SW,225,4.0,7.0,84,0.00,,,0.00,meteohub,2013-03-21 00:42:00,
2013-03-20 20:43:00,78.3,71.1,29.78,SW,225,6.0,7.0,84,0.00,,,0.00,meteohub,2013-03-21 00:43:00,
2013-03-20 20:47:00,78.3,71.1,29.78,SW,225,4.0,7.0,84,0.00,,,0.00,meteohub,2013-03-21 00:47:00,
2013-03-20 20:48:00,78.3,71.1,29.79,West,270,3.0,7.0,84,0.00,,,0.00,meteohub,2013-03-21 00:48:00,
2013-03-20 20:53:00,78.3,71.1,29.78,West,270,4.0,6.0,84,0.00,,,0.00,meteohub,2013-03-21 00:53:00,
2013-03-20 20:54:00,78.3,71.1,29.79,NW,315,3.0,6.0,84,0.00,,,0.00,meteohub,2013-03-21 00:54:00,
2013-03-20 20:58:00,78.3,71.1,29.79,West,270,3.0,6.0,84,0.00,,,0.00,meteohub,2013-03-21 00:58:00,
2013-03-20 21:00:00,78.3,71.2,29.79,West,270,3.0,6.0,85,0.00,,,0.00,meteohub,2013-03-21 01:00:00,
2013-03-20 21:01:00,78.3,71.2,29.79,SW,225,3.0,4.0,85,0.00,,,0.00,meteohub,2013-03-21 01:01:00,
2013-03-20 21:04:00,78.3,71.2,29.79,West,270,4.0,4.0,85,0.00,,,0.00,meteohub,2013-03-21 01:04:00,
2013-03-20 21:07:00,78.3,71.4,29.79,NW,315,2.0,4.0,85,0.00,,,0.00,meteohub,2013-03-21 01:07:00,
2013-03-20 21:09:00,78.3,71.4,29.79,West,270,3.0,4.0,85,0.00,,,0.00,meteohub,2013-03-21 01:09:00,
2013-03-20 21:11:00,78.3,71.4,29.79,SW,225,2.0,4.0,85,0.00,,,0.00,meteohub,2013-03-21 01:11:00,
2013-03-20 21:12:00,78.3,71.4,29.79,SW,225,2.0,4.0,85,0.00,,,0.00,meteohub,2013-03-21 01:12:00,
2013-03-20 21:14:00,78.1,71.4,29.79,SW,225,4.0,4.0,85,0.00,,,0.00,meteohub,2013-03-21 01:14:00,
2013-03-20 21:17:00,78.3,71.6,29.79,West,270,3.0,4.0,85,0.00,,,0.00,meteohub,2013-03-21 01:17:00,
2013-03-20 21:18:00,78.3,71.6,29.79,SW,225,3.0,4.0,85,0.00,,,0.00,meteohub,2013-03-21 01:18:00,
2013-03-20 21:23:00,78.3,71.8,29.79,West,270,2.0,4.0,86,0.00,,,0.00,meteohub,2013-03-21 01:23:00,
2013-03-20 21:24:00,78.3,71.8,29.79,West,270,2.0,4.0,86,0.00,,,0.00,meteohub,2013-03-21 01:24:00,
2013-03-20 21:25:00,78.3,71.8,29.79,SW,225,3.0,4.0,86,0.00,,,0.00,meteohub,2013-03-21 01:25:00,
2013-03-20 21:28:00,78.3,72.0,29.79,West,270,2.0,4.0,86,0.00,,,0.00,meteohub,2013-03-21 01:28:00,
2013-03-20 21:29:00,78.3,72.0,29.79,West,270,2.0,4.0,86,0.00,,,0.00,meteohub,2013-03-21 01:29:00,
2013-03-20 21:30:00,78.3,72.0,29.79,NW,315,2.0,4.0,86,0.00,,,0.00,meteohub,2013-03-21 01:30:00,
2013-03-20 21:31:00,78.3,72.0,29.79,WSW,248,2.0,4.0,86,0.00,,,0.00,meteohub,2013-03-21 01:31:00,
2013-03-20 21:35:00,78.3,72.0,29.79,NW,315,2.0,4.0,86,0.00,,,0.00,meteohub,2013-03-21 01:35:00,
2013-03-20 21:36:00,78.3,72.0,29.79,NW,315,2.0,4.0,86,0.00,,,0.00,meteohub,2013-03-21 01:36:00,
2013-03-20 21:37:00,78.3,72.0,29.79,West,270,1.0,4.0,86,0.00,,,0.00,meteohub,2013-03-21 01:37:00,
2013-03-20 21:40:00,78.3,72.0,29.79,SW,225,2.0,3.0,86,0.00,,,0.00,meteohub,2013-03-21 01:40:00,
2013-03-20 21:41:00,78.3,72.0,29.79,West,270,2.0,3.0,86,0.00,,,0.00,meteohub,2013-03-21 01:41:00,
2013-03-20 21:44:00,78.3,72.0,29.79,WSW,248,2.0,3.0,86,0.00,,,0.00,meteohub,2013-03-21 01:44:00,
2013-03-20 21:46:00,78.3,72.1,29.79,SW,225,2.0,3.0,86,0.00,,,0.00,meteohub,2013-03-21 01:46:00,
2013-03-20 21:47:00,78.3,72.1,29.79,SW,225,2.0,3.0,86,0.00,,,0.00,meteohub,2013-03-21 01:47:00,
2013-03-20 21:48:00,78.3,72.1,29.79,SW,225,3.0,3.0,87,0.00,,,0.00,meteohub,2013-03-21 01:48:00,
2013-03-20 21:52:00,78.3,72.1,29.79,SW,225,3.0,3.0,87,0.00,,,0.00,meteohub,2013-03-21 01:52:00,
2013-03-20 21:53:00,78.3,72.1,29.79,SSW,203,4.0,4.0,87,0.00,,,0.00,meteohub,2013-03-21 01:53:00,
2013-03-20 21:54:00,78.3,72.1,29.79,SW,225,4.0,4.0,87,0.00,,,0.00,meteohub,2013-03-21 01:54:00,
2013-03-20 21:57:00,78.3,72.1,29.79,NW,315,4.0,4.0,87,0.00,,,0.00,meteohub,2013-03-21 01:57:00,
2013-03-20 21:58:00,78.3,72.1,29.79,WSW,248,4.0,4.0,87,0.00,,,0.00,meteohub,2013-03-21 01:58:00,
2013-03-20 22:00:00,78.3,72.1,29.79,WSW,248,2.0,4.0,87,0.00,,,0.00,meteohub,2013-03-21 02:00:00,
2013-03-20 22:01:00,78.3,72.1,29.79,WSW,248,2.0,4.0,87,0.00,,,0.00,meteohub,2013-03-21 02:01:00,
2013-03-20 22:04:00,78.3,72.1,29.79,SW,225,2.0,4.0,87,0.00,,,0.00,meteohub,2013-03-21 02:04:00,
2013-03-20 22:05:00,78.3,72.1,29.79,SW,225,2.0,4.0,87,0.00,,,0.00,meteohub,2013-03-21 02:05:00,
2013-03-20 22:08:00,78.3,72.1,29.79,North,0,1.0,4.0,87,0.00,,,0.00,meteohub,2013-03-21 02:08:00,
2013-03-20 22:09:00,78.3,72.1,29.79,West,270,1.0,4.0,87,0.00,,,0.00,meteohub,2013-03-21 02:09:00,
2013-03-20 22:10:00,78.3,72.1,29.79,West,270,0.0,4.0,87,0.00,,,0.00,meteohub,2013-03-21 02:10:00,
2013-03-20 22:12:00,78.3,72.1,29.79,East,90,2.0,4.0,87,0.00,,,0.00,meteohub,2013-03-21 02:12:00,
2013-03-20 22:15:00,78.3,72.1,29.79,NE,45,3.0,4.0,87,0.00,,,0.00,meteohub,2013-03-21 02:15:00,
2013-03-20 22:17:00,78.1,72.1,29.79,NE,45,4.0,4.0,86,0.00,,,0.00,meteohub,2013-03-21 02:17:00,
2013-03-20 22:18:00,77.9,72.1,29.79,NNE,23,4.0,4.0,86,0.00,,,0.00,meteohub,2013-03-21 02:18:00,
2013-03-20 22:20:00,77.7,72.1,29.79,NE,45,4.0,4.0,86,0.00,,,0.00,meteohub,2013-03-21 02:20:00,
2013-03-20 22:23:00,77.5,72.1,29.79,East,90,2.0,4.0,87,0.00,,,0.00,meteohub,2013-03-21 02:23:00,
2013-03-20 22:24:00,77.5,72.1,29.79,SE,135,2.0,4.0,87,0.00,,,0.00,meteohub,2013-03-21 02:24:00,
2013-03-20 22:26:00,77.5,72.1,29.79,East,90,3.0,4.0,87,0.00,,,0.00,meteohub,2013-03-21 02:26:00,
2013-03-20 22:29:00,77.5,72.1,29.79,ENE,68,5.0,5.0,87,0.00,,,0.00,meteohub,2013-03-21 02:29:00,
2013-03-20 22:30:00,77.4,72.1,29.79,ESE,113,4.0,4.0,88,0.00,,,0.00,meteohub,2013-03-21 02:30:00,
2013-03-20 22:32:00,77.4,72.1,29.80,East,90,6.0,6.0,88,0.00,,,0.00,meteohub,2013-03-21 02:32:00,
2013-03-20 22:36:00,77.0,72.1,29.79,NE,45,6.0,6.0,89,0.00,,,0.00,meteohub,2013-03-21 02:36:00,
2013-03-20 22:37:00,76.8,72.1,29.79,ENE,68,4.0,6.0,91,0.00,,,0.00,meteohub,2013-03-21 02:37:00,
2013-03-20 22:42:00,76.6,72.1,29.79,East,90,5.0,6.0,92,0.00,,,0.00,meteohub,2013-03-21 02:42:00,
2013-03-20 22:43:00,76.6,72.1,29.79,NE,45,5.0,6.0,92,0.00,,,0.00,meteohub,2013-03-21 02:43:00,
2013-03-20 22:44:00,76.5,72.1,29.79,East,90,5.0,6.0,92,0.00,,,0.00,meteohub,2013-03-21 02:44:00,
2013-03-20 22:45:00,76.5,72.1,29.79,SE,135,4.0,6.0,92,0.00,,,0.00,meteohub,2013-03-21 02:45:00,
2013-03-20 22:48:00,76.5,72.1,29.79,East,90,4.0,6.0,93,0.00,,,0.00,meteohub,2013-03-21 02:48:00,
2013-03-20 22:50:00,76.3,72.0,29.79,NE,45,4.0,6.0,93,0.00,,,0.00,meteohub,2013-03-21 02:50:00,
2013-03-20 22:51:00,76.3,72.0,29.79,East,90,5.0,7.0,93,0.00,,,0.00,meteohub,2013-03-21 02:51:00,
2013-03-20 22:52:00,76.3,72.0,29.79,NE,45,4.0,7.0,93,0.00,,,0.00,meteohub,2013-03-21 02:52:00,
2013-03-20 22:55:00,76.1,72.0,29.79,NE,45,5.0,7.0,93,0.00,,,0.00,meteohub,2013-03-21 02:55:00,
2013-03-20 22:57:00,76.1,72.0,29.79,East,90,4.0,7.0,93,0.00,,,0.00,meteohub,2013-03-21 02:57:00,
2013-03-20 23:00:00,75.9,72.0,29.79,East,90,4.0,7.0,93,0.00,,,0.00,meteohub,2013-03-21 03:00:00,
2013-03-20 23:01:00,75.9,72.0,29.79,East,90,4.0,7.0,93,0.00,,,0.00,meteohub,2013-03-21 03:01:00,
2013-03-20 23:05:00,75.7,72.0,29.78,East,90,3.0,6.0,94,0.00,,,0.00,meteohub,2013-03-21 03:05:00,
2013-03-20 23:06:00,75.7,72.0,29.78,East,90,3.0,6.0,94,0.00,,,0.00,meteohub,2013-03-21 03:06:00,
2013-03-20 23:07:00,75.7,72.0,29.78,East,90,4.0,6.0,94,0.00,,,0.00,meteohub,2013-03-21 03:07:00,
2013-03-20 23:11:00,75.7,72.0,29.78,East,90,4.0,6.0,94,0.00,,,0.00,meteohub,2013-03-21 03:11:00,
2013-03-20 23:12:00,75.7,72.0,29.78,NE,45,6.0,6.0,94,0.00,,,0.00,meteohub,2013-03-21 03:12:00,
2013-03-20 23:14:00,75.6,71.8,29.78,SE,135,4.0,6.0,94,0.00,,,0.00,meteohub,2013-03-21 03:14:00,
2013-03-20 23:17:00,75.6,71.8,29.78,NE,45,8.0,8.0,94,0.00,,,0.00,meteohub,2013-03-21 03:17:00,
2013-03-20 23:18:00,75.6,71.8,29.78,East,90,9.0,9.0,94,0.00,,,0.00,meteohub,2013-03-21 03:18:00,
2013-03-20 23:20:00,75.4,71.8,29.78,East,90,8.0,8.0,93,0.00,,,0.00,meteohub,2013-03-21 03:20:00,
2013-03-20 23:22:00,75.4,71.8,29.78,East,90,4.0,8.0,93,0.00,,,0.00,meteohub,2013-03-21 03:22:00,
2013-03-20 23:23:00,75.2,71.8,29.78,East,90,6.0,8.0,93,0.00,,,0.00,meteohub,2013-03-21 03:23:00,
2013-03-20 23:26:00,75.2,71.8,29.78,NE,45,4.0,9.0,92,0.00,,,0.00,meteohub,2013-03-21 03:26:00,
2013-03-20 23:27:00,75.2,71.8,29.78,East,90,4.0,9.0,92,0.00,,,0.00,meteohub,2013-03-21 03:27:00,
2013-03-20 23:28:00,75.0,71.6,29.78,NE,45,4.0,9.0,93,0.00,,,0.00,meteohub,2013-03-21 03:28:00,
2013-03-20 23:30:00,75.0,71.6,29.78,NE,45,4.0,9.0,93,0.00,,,0.00,meteohub,2013-03-21 03:30:00,
2013-03-20 23:31:00,75.0,71.6,29.78,NE,45,4.0,9.0,93,0.00,,,0.00,meteohub,2013-03-21 03:31:00,
2013-03-20 23:32:00,75.0,71.6,29.78,NE,45,5.0,9.0,93,0.00,,,0.00,meteohub,2013-03-21 03:32:00,
2013-03-20 23:35:00,74.8,71.6,29.78,SE,135,3.0,9.0,94,0.00,,,0.00,meteohub,2013-03-21 03:35:00,
2013-03-20 23:36:00,74.8,71.6,29.78,East,90,4.0,8.0,94,0.00,,,0.00,meteohub,2013-03-21 03:36:00,
2013-03-20 23:42:00,74.7,71.4,29.78,NE,45,5.0,6.0,95,0.00,,,0.00,meteohub,2013-03-21 03:42:00,
2013-03-20 23:43:00,74.7,71.4,29.78,NNE,23,5.0,6.0,95,0.00,,,0.00,meteohub,2013-03-21 03:43:00,
2013-03-20 23:45:00,74.5,71.4,29.78,NE,45,5.0,6.0,95,0.00,,,0.00,meteohub,2013-03-21 03:45:00,
2013-03-20 23:47:00,74.3,71.4,29.78,NE,45,4.0,5.0,95,0.00,,,0.00,meteohub,2013-03-21 03:47:00,
2013-03-20 23:49:00,74.3,71.4,29.78,NE,45,3.0,5.0,95,0.00,,,0.00,meteohub,2013-03-21 03:49:00,
2013-03-20 23:52:00,74.3,71.4,29.78,NE,45,4.0,5.0,95,0.00,,,0.00,meteohub,2013-03-21 03:52:00,
2013-03-20 23:53:00,74.3,71.4,29.78,NE,45,4.0,5.0,95,0.00,,,0.00,meteohub,2013-03-21 03:53:00,
2013-03-20 23:54:00,74.1,71.4,29.77,NE,45,4.0,5.0,95,0.00,,,0.00,meteohub,2013-03-21 03:54:00,
2013-03-20 23:57:00,74.1,71.4,29.77,North,0,4.0,5.0,95,0.00,,,0.00,meteohub,2013-03-21 03:57:00,
2013-03-20 23:58:00,74.1,71.4,29.78,NE,45,4.0,5.0,95,0.00,,,0.00,meteohub,2013-03-21 03:58:00,